N4ASP-13 Weather Reports


time (UTC)temp
C
wind
direction
speed
KPH
gust
KPH
rain 1hr
cm
rain 24hr
cm
rain mn
cm
humidity
%
barometer
mb
20260906161714 20 32 0.0 0.0 0.00 1.83 2.97 96 1016.1
20260906161614 20 32 0.0 0.0 0.00 1.83 2.97 96 1016.1
20260906161514 20 29 0.0 0.0 0.00 1.83 2.97 97 1016.1
20260906161412 20 5 0.0 8.0 0.00 1.83 2.97 97 1016.1
20260906161309 20 26 0.0 8.0 0.00 1.83 2.97 96 1016.2
20260906161210 20 355 0.0 8.0 0.00 1.83 2.97 96 1016.2
20260906161109 20 40 0.0 8.0 0.00 1.83 2.97 96 1016.2
20260906161010 20 355 0.0 8.0 0.00 1.83 2.97 96 1016.4
20260906160910 20 333 1.6 8.0 0.00 1.83 2.97 96 1016.3
20260906160810 20 339 1.6 8.0 0.00 1.83 2.97 96 1016.3
20260906160711 20 10 1.6 8.0 0.00 1.83 2.97 96 1016.4
20260906160609 20 322 1.6 8.0 0.00 1.83 2.97 96 1016.4
20260906160510 20 319 3.2 8.0 0.00 1.83 2.97 96 1016.4
20260906160409 20 346 3.2 8.0 0.00 1.83 2.97 97 1016.4
20260906160309 20 344 3.2 8.0 0.00 1.83 2.97 97 1016.3
20260906160210 20 337 4.8 9.7 0.00 1.83 2.97 97 1016.4
20260906160110 20 335 4.8 9.7 0.00 1.83 2.97 97 1016.4
20260906160009 20 333 4.8 11.3 0.00 1.83 2.97 97 1016.4
20260906155912 20 326 4.8 11.3 0.00 1.83 2.97 97 1016.4
20260906155810 20 326 4.8 11.3 0.00 1.83 2.97 97 1016.5
20260906155709 20 323 4.8 11.3 0.00 1.83 2.97 97 1016.4
20260906155610 20 323 6.4 11.3 0.00 1.83 2.97 97 1016.5
20260906155510 20 312 4.8 11.3 0.00 1.83 2.97 96 1016.5
20260906155408 20 10 4.8 11.3 0.00 1.83 2.97 96 1016.4
20260906155311 20 5 4.8 11.3 0.00 1.83 2.97 96 1016.4
20260906155209 20 350 4.8 11.3 0.00 1.83 2.97 96 1016.4
20260906155110 20 26 4.8 11.3 0.00 1.83 2.97 96 1016.4
20260906155010 20 28 4.8 12.9 0.00 1.83 2.97 96 1016.4
20260906154910 20 25 4.8 12.9 0.00 1.83 2.97 96 1016.4
20260906154811 20 33 4.8 12.9 0.00 1.83 2.97 97 1016.4
20260906154709 20 355 4.8 12.9 0.00 1.83 2.97 97 1016.4
20260906154610 20 5 4.8 12.9 0.00 1.83 2.97 97 1016.4
20260906154510 20 11 4.8 12.9 0.03 1.83 2.97 97 1016.4
20260906154409 20 11 4.8 12.9 0.03 1.83 2.97 97 1016.4
20260906154312 20 11 4.8 12.9 0.03 1.83 2.97 97 1016.3
20260906154210 20 12 4.8 12.9 0.03 1.83 2.97 97 1016.3
20260906154110 20 308 4.8 12.9 0.03 1.83 2.97 97 1016.3
20260906154009 20 342 4.8 12.9 0.03 1.83 2.97 97 1016.3
20260906153909 20 344 4.8 9.7 0.03 1.83 2.97 97 1016.3
20260906153810 20 11 4.8 9.7 0.03 1.83 2.97 97 1016.4
20260906153707 20 13 4.8 9.7 0.03 1.83 2.97 97 1016.4
20260906153608 20 5 4.8 9.7 0.03 1.83 2.97 97 1016.3
20260906153507 20 347 3.2 9.7 0.03 1.83 2.97 97 1016.3
20260906153408 20 346 3.2 6.4 0.05 1.83 2.97 97 1016.3
20260906153307 20 17 3.2 6.4 0.05 1.83 2.97 97 1016.2
20260906153207 20 18 3.2 6.4 0.05 1.83 2.97 97 1016.2
20260906153107 20 49 3.2 6.4 0.05 1.83 2.97 97 1016.3
20260906153008 20 51 3.2 6.4 0.05 1.83 2.97 97 1016.1
20260906152905 20 55 3.2 6.4 0.08 1.83 2.97 97 1016.1
20260906152801 20 78 3.2 6.4 0.08 1.83 2.97 97 1016.0
20260906152701 20 78 3.2 6.4 0.08 1.83 2.97 97 1016.1
20260906152559 20 78 3.2 6.4 0.08 1.83 2.97 97 1016.1
20260906152457 20 78 3.2 6.4 0.08 1.83 2.97 97 1016.1
20260906152354 20 81 3.2 6.4 0.10 1.83 2.97 97 1016.1
20260906152255 20 81 3.2 6.4 0.10 1.83 2.97 97 1016.1
20260906152153 19 80 3.2 6.4 0.10 1.83 2.97 97 1016.1
20260906152052 20 95 3.2 6.4 0.10 1.83 2.97 97 1016.1
20260906151952 19 101 3.2 6.4 0.10 1.83 2.97 97 1016.2
20260906151847 19 150 3.2 4.8 0.10 1.83 2.97 97 1016.2
20260906151747 19 150 3.2 4.8 0.10 1.83 2.97 97 1016.2
20260906151646 19 150 3.2 4.8 0.10 1.83 2.97 97 1016.1
20260906151547 19 150 3.2 4.8 0.13 1.83 2.97 97 1016.2
20260906151445 19 150 3.2 4.8 0.18 1.83 2.97 97 1016.2
20260906151344 19 150 3.2 6.4 0.20 1.83 2.97 97 1016.1
20260906151243 19 150 3.2 6.4 0.28 1.83 2.97 97 1016.2
20260906151145 19 152 3.2 6.4 0.28 1.83 2.97 97 1016.2
20260906151042 19 152 3.2 6.4 0.33 1.83 2.97 97 1016.2
20260906150942 19 152 1.6 6.4 0.43 1.83 2.97 97 1016.2
20260906150840 19 152 1.6 6.4 0.51 1.83 2.97 97 1016.3
20260906150741 18 152 1.6 6.4 0.58 1.83 2.97 97 1016.4
20260906150639 18 152 1.6 6.4 0.66 1.83 2.97 96 1016.3
20260906150537 18 152 1.6 6.4 0.74 1.83 2.97 96 1016.4
20260906150437 18 153 1.6 6.4 0.91 1.83 2.97 96 1016.5
20260906150338 18 159 0.0 6.4 0.91 1.83 2.97 96 1016.5
20260906150237 18 224 0.0 3.2 0.99 1.83 2.97 96 1016.5
20260906150137 18 224 1.6 4.8 1.12 1.83 2.97 96 1016.4
20260906150035 18 224 1.6 4.8 1.30 1.83 2.97 96 1016.5
20260906145936 18 224 1.6 6.4 1.57 1.83 2.97 96 1016.4
20260906145836 18 224 1.6 6.4 1.83 1.83 2.97 96 1016.5
20260906145736 18 224 1.6 6.4 1.83 1.83 2.97 96 1016.4
20260906145634 18 224 1.6 6.4 1.83 1.83 2.97 96 1016.4
20260906145532 18 224 1.6 6.4 1.83 1.83 2.97 96 1016.4
20260906145433 18 224 3.2 6.4 1.83 1.83 2.97 96 1016.4
20260906145333 18 224 3.2 6.4 1.83 1.83 2.97 96 1016.4
20260906145234 18 224 3.2 6.4 1.83 1.83 2.97 96 1016.4
20260906145133 18 225 3.2 6.4 1.83 1.83 2.97 96 1016.4
20260906145033 18 222 3.2 6.4 1.83 1.83 2.97 96 1016.4
20260906144935 18 227 3.2 6.4 1.83 1.83 2.97 96 1016.4
20260906144833 18 221 3.2 8.0 1.83 1.83 2.97 96 1016.3
20260906144731 18 221 3.2 8.0 1.83 1.83 2.97 96 1016.4
20260906144631 18 221 3.2 8.0 1.83 1.83 2.97 96 1016.4
20260906144532 18 221 3.2 8.0 1.80 1.80 2.95 96 1016.4
20260906144431 18 219 3.2 8.0 1.80 1.80 2.95 96 1016.3
20260906144331 18 217 3.2 8.0 1.80 1.80 2.95 96 1016.3
20260906144231 18 189 3.2 8.0 1.80 1.80 2.95 96 1016.3
20260906144132 18 188 3.2 8.0 1.80 1.80 2.95 96 1016.2
20260906144030 18 187 3.2 8.0 1.80 1.80 2.95 96 1016.1
20260906143928 18 170 3.2 8.0 1.80 1.80 2.95 96 1016.1
20260906143824 18 109 3.2 6.4 1.80 1.80 2.95 96 1016.1
20260906143726 18 92 1.6 4.8 1.80 1.80 2.95 95 1016.1
20260906143625 18 92 1.6 4.8 1.80 1.80 2.95 95 1016.2
20260906143522 18 90 1.6 4.8 1.80 1.80 2.95 95 1016.2
20260906143419 18 20 1.6 4.8 1.78 1.78 2.92 95 1016.3
20260906143318 18 19 1.6 4.8 1.78 1.78 2.92 95 1016.3
20260906143217 18 19 1.6 4.8 1.78 1.78 2.92 95 1016.3
20260906143119 18 19 1.6 4.8 1.78 1.78 2.92 95 1016.4
20260906143015 18 18 1.6 4.8 1.78 1.78 2.92 95 1016.4
20260906142915 18 18 1.6 4.8 1.75 1.75 2.92 95 1016.5
20260906142813 18 18 1.6 4.8 1.75 1.75 2.90 95 1016.5
20260906142713 18 18 1.6 4.8 1.75 1.75 2.90 95 1016.4
20260906142611 18 18 1.6 4.8 1.75 1.75 2.90 95 1016.4
20260906142509 18 18 1.6 8.0 1.75 1.75 2.90 95 1016.4
20260906142410 18 17 1.6 8.0 1.73 1.73 2.87 95 1016.4
20260906142308 18 17 3.2 8.0 1.73 1.73 2.87 95 1016.4
20260906142207 18 34 3.2 8.0 1.73 1.73 2.87 95 1016.4
20260906142108 18 34 3.2 8.0 1.73 1.73 2.87 95 1016.4
20260906142007 18 39 3.2 8.0 1.73 1.73 2.87 95 1016.5
20260906141907 18 39 3.2 8.0 1.73 1.73 2.87 95 1016.5
20260906141807 18 46 3.2 8.0 1.73 1.73 2.87 95 1016.6
20260906141707 18 46 3.2 8.0 1.73 1.73 2.87 95 1016.6
20260906141607 18 46 3.2 8.0 1.73 1.73 2.87 95 1016.6
20260906141507 18 40 3.2 8.0 1.70 1.70 2.84 95 1016.6
20260906141407 18 14 1.6 8.0 1.65 1.65 2.82 95 1016.7
20260906141308 18 40 1.6 8.0 1.63 1.63 2.77 95 1016.6
20260906141203 18 60 1.6 8.0 1.55 1.55 2.74 95 1016.9
20260906141101 18 62 0.0 8.0 1.50 1.50 2.67 94 1016.7
20260906141002 18 38 0.0 4.8 1.40 1.40 2.59 94 1016.7
20260906140902 18 51 0.0 3.2 1.32 1.32 2.54 94 1016.9
20260906140801 18 33 0.0 1.6 1.24 1.24 2.44 94 1016.9
20260906140656 18 5 0.0 1.6 1.17 1.17 2.36 94 1016.9
20260906140556 18 51 0.0 1.6 1.09 1.09 2.29 94 1017.0
20260906140455 18 36 0.0 1.6 0.91 0.91 2.18 94 1017.1
20260906140355 19 317 0.0 1.6 0.91 0.91 2.06 94 1017.3
20260906140255 19 336 0.0 1.6 0.84 0.84 2.03 94 1017.3
20260906140152 19 290 0.0 0.0 0.71 0.71 1.96 94 1017.1
20260906140051 19 280 0.0 0.0 0.53 0.53 1.75 94 1017.1
20260906135951 19 328 0.0 0.0 0.25 0.25 1.55 94 1017.3
20260906135852 20 330 0.0 0.0 0.00 0.00 1.27 93 1017.4
20260906135750 20 325 0.0 0.0 0.00 0.00 0.25 94 1016.9
20260906135555 20 311 0.0 0.0 0.61 0.61 0.74 94 1017.2
20260906135456 20 258 0.0 0.0 0.43 0.43 0.56 94 1017.1
20260906135349 20 312 0.0 0.0 0.25 0.25 0.41 94 1017.0
20260906135250 20 344 0.0 0.0 0.25 0.25 0.28 94 1016.9
20260906135151 20 332 0.0 0.0 0.15 0.15 0.15 94 1016.9
20260906135050 20 286 0.0 0.0 0.05 0.05 0.08 94 1016.7
20260906134950 20 320 0.0 0.0 0.03 0.03 0.03 94 1016.7
20260906134847 21 323 0.0 0.0 0.00 0.00 0.00 94 1016.7
20260906134743 21 331 0.0 0.0 0.00 0.00 0.00 94 1016.7
20260906134644 21 328 0.0 0.0 0.00 0.00 0.00 94 1016.7
20260906134542 21 261 0.0 0.0 0.00 0.00 0.00 94 1016.7
20260906134444 21 305 0.0 0.0 0.00 0.00 0.00 94 1016.5
20260906134335 21 328 0.0 0.0 0.00 0.00 0.00 94 1016.3
20260906134236 21 63 0.0 0.0 0.00 0.00 0.00 94 1016.2
20260906134135 21 15 0.0 0.0 0.00 0.00 0.00 94 1015.9
20260906134035 21 94 0.0 0.0 0.00 0.00 0.00 94 1015.9
20260906133934 21 96 0.0 0.0 0.00 0.00 0.00 94 1015.8
20260906133830 21 134 0.0 0.0 0.00 0.00 0.00 94 1015.8
20260906133727 21 107 0.0 0.0 0.00 0.00 0.00 94 1015.8
20260906133627 21 95 0.0 0.0 0.00 0.00 0.00 94 1015.8
20260906133528 21 112 0.0 0.0 0.00 0.00 0.00 94 1015.8
20260906133425 21 96 0.0 0.0 0.00 0.00 0.00 94 1015.9
20260906133324 21 121 0.0 0.0 0.00 0.00 0.00 94 1015.9
20260906133223 21 139 0.0 0.0 0.00 0.00 0.00 94 1015.9
20260906133124 21 119 0.0 0.0 0.00 0.00 0.00 94 1015.8
20260906133021 21 104 0.0 0.0 0.00 0.00 0.00 94 1015.8
20260906132920 21 117 0.0 0.0 0.00 0.00 0.00 94 1015.8
20260906132810 21 92 0.0 0.0 0.00 0.00 0.00 94 1015.9
20260906132711 21 91 0.0 0.0 0.00 0.00 0.00 94 1015.9
20260906132611 21 116 0.0 0.0 0.00 0.00 0.00 94 1015.9
20260906132512 21 90 0.0 0.0 0.00 0.00 0.00 94 1016.0
20260906132409 21 115 0.0 0.0 0.00 0.00 0.00 94 1015.9
20260906132306 21 115 0.0 0.0 0.00 0.00 0.00 94 1015.9
20260906132203 21 139 0.0 0.0 0.00 0.00 0.00 94 1015.9
20260906132104 21 111 0.0 0.0 0.00 0.00 0.00 94 1015.8
20260906132003 21 95 0.0 0.0 0.00 0.00 0.00 94 1015.8
20260906131904 21 130 0.0 0.0 0.00 0.00 0.00 94 1015.9
20260906131800 21 144 0.0 0.0 0.00 0.00 0.00 94 1015.8
20260906131657 21 111 0.0 0.0 0.00 0.00 0.00 94 1015.7
20260906131557 21 129 0.0 0.0 0.00 0.00 0.00 94 1015.7
20260906131458 21 127 0.0 0.0 0.00 0.00 0.00 94 1015.8
20260906131356 21 108 0.0 0.0 0.00 0.00 0.00 94 1015.8
20260906131247 21 100 0.0 0.0 0.00 0.00 0.00 94 1015.8
20260906131147 21 114 0.0 0.0 0.00 0.00 0.00 94 1015.8
20260906131047 21 128 0.0 0.0 0.00 0.00 0.00 94 1015.8
20260906130948 21 104 0.0 0.0 0.00 0.00 0.00 94 1015.8
20260906130846 21 134 0.0 0.0 0.00 0.00 0.00 94 1015.8
20260906130741 21 138 0.0 0.0 0.00 0.00 0.00 94 1015.8
20260906130640 21 115 0.0 0.0 0.00 0.00 0.00 94 1015.8
20260906130540 21 142 0.0 0.0 0.00 0.00 0.00 94 1015.8
20260906130439 21 139 0.0 0.0 0.00 0.00 0.00 94 1015.7
20260906130339 21 147 0.0 0.0 0.00 0.00 0.00 94 1015.7
20260906130236 21 119 0.0 0.0 0.00 0.00 0.00 94 1015.8
20260906130135 21 136 0.0 0.0 0.00 0.00 0.00 94 1015.7
20260906130035 21 128 0.0 0.0 0.00 0.00 0.00 94 1015.8
20260906125935 21 139 0.0 0.0 0.00 0.00 0.00 94 1015.8
20260906125833 21 132 0.0 0.0 0.00 0.00 0.00 94 1015.8
20260906125724 21 142 0.0 0.0 0.00 0.00 0.00 94 1015.7
20260906125623 21 128 0.0 0.0 0.00 0.00 0.00 94 1015.8
20260906125524 21 131 0.0 0.0 0.00 0.00 0.00 94 1015.8
20260906125424 21 123 0.0 0.0 0.00 0.00 0.00 94 1015.8
20260906125324 21 107 0.0 0.0 0.00 0.00 0.00 94 1015.8
20260906125221 21 119 0.0 0.0 0.00 0.00 0.00 94 1015.8
20260906125122 21 109 0.0 0.0 0.00 0.00 0.00 94 1015.7
20260906125023 21 131 0.0 0.0 0.00 0.00 0.00 94 1015.8
20260906124920 21 142 0.0 0.0 0.00 0.00 0.00 94 1015.7
20260906124817 21 128 0.0 0.0 0.00 0.00 0.00 94 1015.8
20260906124714 21 94 0.0 0.0 0.00 0.00 0.00 94 1015.8
20260906124615 21 91 0.0 0.0 0.00 0.00 0.00 94 1015.8
20260906124513 21 107 0.0 0.0 0.00 0.00 0.00 94 1015.8
20260906124414 21 135 0.0 0.0 0.00 0.00 0.00 94 1015.8
20260906124311 21 117 0.0 0.0 0.00 0.00 0.00 94 1015.7
20260906124202 21 141 0.0 0.0 0.00 0.00 0.00 94 1015.7
20260906124101 21 142 0.0 0.0 0.00 0.00 0.00 94 1015.7
20260906124002 21 106 0.0 0.0 0.00 0.00 0.00 94 1015.7
20260906123901 21 120 0.0 0.0 0.00 0.00 0.00 94 1015.6
20260906123802 21 123 0.0 0.0 0.00 0.00 0.00 94 1015.6
20260906123659 21 125 0.0 0.0 0.00 0.00 0.00 94 1015.6
20260906123559 21 126 0.0 0.0 0.00 0.00 0.00 94 1015.6
20260906123458 21 143 0.0 0.0 0.00 0.00 0.00 94 1015.6
20260906123358 21 112 0.0 0.0 0.00 0.00 0.00 94 1015.6
20260906123256 21 112 0.0 0.0 0.00 0.00 0.00 94 1015.6
20260906123152 21 100 0.0 0.0 0.00 0.00 0.00 94 1015.5
20260906123049 21 161 0.0 0.0 0.00 0.00 0.00 94 1015.6
20260906122951 21 119 0.0 0.0 0.00 0.00 0.00 94 1015.7
20260906122849 21 115 0.0 0.0 0.00 0.00 0.00 94 1015.6
20260906122750 21 107 0.0 0.0 0.00 0.00 0.00 94 1015.7
20260906122639 21 109 0.0 0.0 0.00 0.00 0.00 93 1015.6
20260906122539 21 98 0.0 0.0 0.00 0.00 0.00 93 1015.7
20260906122440 21 78 0.0 0.0 0.00 0.00 0.00 93 1015.6
20260906122339 21 74 0.0 0.0 0.00 0.00 0.00 93 1015.7
20260906122240 21 97 0.0 0.0 0.00 0.00 0.00 93 1015.6
20260906122136 21 96 0.0 0.0 0.00 0.00 0.00 93 1015.7
20260906122033 21 86 0.0 0.0 0.00 0.00 0.00 93 1015.7
20260906121933 21 111 0.0 0.0 0.00 0.00 0.00 93 1015.7
20260906121833 21 120 0.0 0.0 0.00 0.00 0.00 93 1015.7
20260906121734 21 81 0.0 0.0 0.00 0.00 0.00 93 1015.6
20260906121630 21 107 0.0 0.0 0.00 0.00 0.00 93 1015.6
20260906121526 21 96 0.0 0.0 0.00 0.00 0.00 93 1015.6
20260906121429 21 103 0.0 0.0 0.00 0.00 0.00 93 1015.5
20260906121327 21 118 0.0 0.0 0.00 0.00 0.00 92 1015.6
20260906121227 21 92 0.0 0.0 0.00 0.00 0.00 92 1015.5
20260906121123 21 90 0.0 0.0 0.00 0.00 0.00 92 1015.6
20260906121021 21 80 0.0 0.0 0.00 0.00 0.00 92 1015.5
20260906120922 21 76 0.0 0.0 0.00 0.00 0.00 92 1015.5
20260906120819 21 84 0.0 0.0 0.00 0.00 0.00 92 1015.5
20260906120717 21 76 0.0 0.0 0.00 0.00 0.00 91 1015.5
20260906120615 21 70 0.0 0.0 0.00 0.00 0.00 91 1015.4
20260906120514 21 56 0.0 0.0 0.00 0.00 0.00 91 1015.5
20260906120413 21 70 0.0 0.0 0.00 0.00 0.00 91 1015.4
20260906120313 21 59 0.0 0.0 0.00 0.00 0.00 91 1015.4
20260906120212 21 87 0.0 0.0 0.00 0.00 0.00 91 1015.3
20260906120108 21 87 0.0 0.0 0.00 0.00 0.00 90 1015.3
20260906120011 21 88 0.0 0.0 0.00 0.00 0.00 90 1015.0
20260906115907 21 101 0.0 0.0 0.00 0.00 0.00 90 1015.0
20260906115808 21 122 0.0 0.0 0.00 0.00 0.00 90 1015.0
20260906115705 21 98 0.0 0.0 0.00 0.00 0.00 90 1015.0
20260906115559 21 116 0.0 0.0 0.00 0.00 0.00 90 1015.0
20260906115459 21 127 0.0 0.0 0.00 0.00 0.00 90 1015.0
20260906115358 21 89 0.0 0.0 0.00 0.00 0.00 90 1015.0
20260906115257 21 100 0.0 0.0 0.00 0.00 0.00 89 1014.9
20260906115156 21 98 0.0 0.0 0.00 0.00 0.00 89 1015.0
20260906115055 21 98 0.0 0.0 0.00 0.00 0.00 89 1015.0
20260906114954 21 99 0.0 0.0 0.00 0.00 0.00 89 1015.0
20260906114851 21 65 0.0 0.0 0.00 0.00 0.00 89 1015.0
20260906114752 21 76 0.0 0.0 0.00 0.00 0.00 89 1015.1
20260906114650 21 76 0.0 0.0 0.00 0.00 0.00 89 1015.0
20260906114549 21 76 0.0 0.0 0.00 0.00 0.00 89 1015.0
20260906114447 21 76 0.0 0.0 0.00 0.00 0.00 89 1015.0
20260906114344 21 76 0.0 0.0 0.00 0.00 0.00 88 1015.0
20260906114246 21 93 0.0 0.0 0.00 0.00 0.00 88 1015.0
20260906114143 21 93 0.0 0.0 0.00 0.00 0.00 88 1015.1
20260906114038 21 93 0.0 0.0 0.00 0.00 0.00 88 1014.9
20260906113938 22 93 0.0 0.0 0.00 0.00 0.00 88 1014.9
20260906113835 22 93 0.0 0.0 0.00 0.00 0.00 88 1014.9
20260906113736 22 98 0.0 0.0 0.00 0.00 0.00 88 1015.0
20260906113634 22 98 0.0 0.0 0.00 0.00 0.00 88 1014.9
20260906113534 22 98 0.0 0.0 0.00 0.00 0.00 88 1014.9
20260906113432 22 98 0.0 0.0 0.00 0.00 0.00 88 1014.9
20260906113328 21 98 0.0 0.0 0.00 0.00 0.00 88 1014.8
20260906113229 21 98 0.0 0.0 0.00 0.00 0.00 88 1014.9
20260906113128 22 98 0.0 0.0 0.00 0.00 0.00 88 1014.8
20260906113025 21 98 0.0 0.0 0.00 0.00 0.00 88 1014.8
20260906112926 22 98 0.0 0.0 0.00 0.00 0.00 88 1014.8
20260906112823 21 98 0.0 0.0 0.00 0.00 0.00 88 1014.8
20260906112724 21 98 0.0 0.0 0.00 0.00 0.00 88 1014.7
20260906112621 21 98 0.0 0.0 0.00 0.00 0.00 87 1014.8
20260906112514 21 97 0.0 0.0 0.00 0.00 0.00 87 1014.7
20260906112416 21 98 0.0 0.0 0.00 0.00 0.00 87 1014.7
20260906112315 21 98 0.0 0.0 0.00 0.00 0.00 87 1014.7
20260906112214 21 98 0.0 0.0 0.00 0.00 0.00 87 1014.8
20260906112112 21 98 0.0 0.0 0.00 0.00 0.00 87 1014.8
20260906112006 21 98 0.0 0.0 0.00 0.00 0.00 87 1014.7
20260906111905 21 98 0.0 0.0 0.00 0.00 0.00 87 1014.6
20260906111806 22 98 0.0 0.0 0.00 0.00 0.00 87 1014.6
20260906111705 21 98 0.0 0.0 0.00 0.00 0.00 87 1014.6
20260906111605 22 98 0.0 0.0 0.00 0.00 0.00 87 1014.6
20260906111501 21 98 0.0 0.0 0.00 0.00 0.00 87 1014.5
20260906111400 21 98 0.0 0.0 0.00 0.00 0.00 87 1014.6
20260906111301 22 98 0.0 0.0 0.00 0.00 0.00 87 1014.6
20260906111159 21 98 0.0 0.0 0.00 0.00 0.00 87 1014.6
20260906111059 22 97 0.0 0.0 0.00 0.00 0.00 87 1014.6
20260906110953 22 94 0.0 0.0 0.00 0.00 0.00 87 1014.6
20260906110853 22 71 0.0 0.0 0.00 0.00 0.00 87 1014.6
20260906110752 22 67 0.0 0.0 0.00 0.00 0.00 87 1014.6
20260906110651 22 13 0.0 0.0 0.00 0.00 0.00 87 1014.7
20260906110550 22 13 0.0 0.0 0.00 0.00 0.00 87 1014.6
20260906110449 22 13 0.0 0.0 0.00 0.00 0.00 87 1014.6
20260906110347 22 9 0.0 0.0 0.00 0.00 0.00 87 1014.6
20260906110246 22 9 0.0 0.0 0.00 0.00 0.00 86 1014.6
20260906110145 22 9 0.0 0.0 0.00 0.00 0.00 87 1014.6
20260906110044 22 9 0.0 0.0 0.00 0.00 0.00 87 1014.6
20260906105940 22 13 0.0 0.0 0.00 0.00 0.00 87 1014.6
20260906105836 22 19 0.0 0.0 0.00 0.00 0.00 87 1014.7
20260906105739 22 11 0.0 0.0 0.00 0.00 0.00 86 1014.6
20260906105638 22 25 0.0 0.0 0.00 0.00 0.00 86 1014.6
20260906105538 22 39 0.0 0.0 0.00 0.00 0.00 86 1014.6
20260906105431 22 43 0.0 0.0 0.00 0.00 0.00 86 1014.6
20260906105332 22 51 0.0 0.0 0.00 0.00 0.00 86 1014.6
20260906105230 22 57 0.0 0.0 0.00 0.00 0.00 86 1014.6
20260906105129 22 65 0.0 0.0 0.00 0.00 0.00 86 1014.6
20260906105027 22 77 0.0 0.0 0.00 0.00 0.00 86 1014.6
20260906104927 22 79 0.0 0.0 0.00 0.00 0.00 86 1014.7
20260906104826 22 147 0.0 0.0 0.00 0.00 0.00 86 1014.7
20260906104726 22 22 0.0 0.0 0.00 0.00 0.00 86 1014.6
20260906104622 22 22 0.0 0.0 0.00 0.00 0.00 86 1014.7
20260906104521 22 23 0.0 0.0 0.00 0.00 0.00 86 1014.6
20260906104421 22 23 0.0 0.0 0.00 0.00 0.00 86 1014.7
20260906104320 22 23 0.0 0.0 0.00 0.00 0.00 86 1014.7
20260906104219 22 23 0.0 0.0 0.00 0.00 0.00 86 1014.6
20260906104118 22 23 0.0 0.0 0.00 0.00 0.00 86 1014.6
20260906104016 22 153 0.0 0.0 0.00 0.00 0.00 86 1014.6
20260906103905 22 152 0.0 0.0 0.00 0.00 0.00 86 1014.6
20260906103805 22 152 0.0 0.0 0.00 0.00 0.00 86 1014.6
20260906103705 22 152 0.0 0.0 0.00 0.00 0.00 86 1014.7
20260906103604 22 152 0.0 0.0 0.00 0.00 0.00 86 1014.7
20260906103505 22 152 0.0 0.0 0.00 0.00 0.00 86 1014.6
20260906103403 22 152 0.0 0.0 0.00 0.00 0.00 86 1014.6
20260906103303 22 152 0.0 0.0 0.00 0.00 0.00 86 1014.5
20260906103204 22 152 0.0 0.0 0.00 0.00 0.00 86 1014.6
20260906103101 22 152 0.0 0.0 0.00 0.00 0.00 86 1014.5
20260906103000 22 152 0.0 0.0 0.00 0.00 0.00 86 1014.6
20260906102859 22 152 0.0 0.0 0.00 0.00 0.00 86 1014.6
20260906102757 22 152 0.0 0.0 0.00 0.00 0.00 86 1014.5
20260906102656 22 152 0.0 0.0 0.00 0.00 0.00 86 1014.5
20260906102556 22 140 0.0 0.0 0.00 0.00 0.00 86 1014.6
20260906102453 22 96 0.0 0.0 0.00 0.00 0.00 86 1014.5
20260906102346 22 93 0.0 0.0 0.00 0.00 0.00 86 1014.5
20260906102248 22 92 0.0 0.0 0.00 0.00 0.00 86 1014.6
20260906102148 22 92 0.0 0.0 0.00 0.00 0.00 86 1014.6
20260906102046 22 92 0.0 0.0 0.00 0.00 0.00 86 1014.5
20260906101944 22 88 0.0 0.0 0.00 0.00 0.00 86 1014.5
20260906101842 22 88 0.0 0.0 0.00 0.00 0.00 86 1014.6
20260906101741 22 88 0.0 0.0 0.00 0.00 0.00 86 1014.5
20260906101642 22 88 0.0 0.0 0.00 0.00 0.00 86 1014.5
20260906101539 22 88 0.0 0.0 0.00 0.00 0.00 86 1014.5
20260906101438 22 88 0.0 0.0 0.00 0.00 0.00 86 1014.4
20260906101334 22 89 0.0 0.0 0.00 0.00 0.00 86 1014.4
20260906101231 22 88 0.0 0.0 0.00 0.00 0.00 86 1014.4
20260906101132 22 80 0.0 0.0 0.00 0.00 0.00 86 1014.3
20260906101032 22 101 0.0 0.0 0.00 0.00 0.00 86 1014.3
20260906100932 22 92 0.0 0.0 0.00 0.00 0.00 86 1014.3
20260906100825 22 92 0.0 0.0 0.00 0.00 0.00 86 1014.3
20260906100726 22 59 0.0 0.0 0.00 0.00 0.00 86 1014.3
20260906100624 22 64 0.0 0.0 0.00 0.00 0.00 86 1014.3
20260906100523 22 72 0.0 0.0 0.00 0.00 0.00 86 1014.3
20260906100421 22 69 0.0 0.0 0.00 0.00 0.00 86 1014.4
20260906100318 22 86 0.0 0.0 0.00 0.00 0.00 86 1014.3
20260906100216 22 73 0.0 0.0 0.00 0.00 0.00 86 1014.3
20260906100115 22 72 0.0 0.0 0.00 0.00 0.00 86 1014.3
20260906100015 22 69 0.0 0.0 0.00 0.00 0.00 86 1014.3
20260906095915 22 68 0.0 0.0 0.00 0.00 0.00 86 1014.2
20260906095816 22 87 0.0 0.0 0.00 0.00 0.00 86 1014.2
20260906095714 22 92 0.0 0.0 0.00 0.00 0.00 86 1014.2
20260906095613 22 94 0.0 0.0 0.00 0.00 0.00 86 1014.3
20260906095512 22 101 0.0 0.0 0.00 0.00 0.00 86 1014.2
20260906095409 22 109 0.0 0.0 0.00 0.00 0.00 86 1014.1
20260906095259 22 109 0.0 0.0 0.00 0.00 0.00 87 1014.1
20260906095200 22 113 0.0 0.0 0.00 0.00 0.00 86 1014.1
20260906095100 22 113 0.0 0.0 0.00 0.00 0.00 86 1014.1
20260906095000 22 113 0.0 0.0 0.00 0.00 0.00 86 1014.1
20260906094900 22 113 0.0 0.0 0.00 0.00 0.00 86 1014.1
20260906094758 22 114 0.0 0.0 0.00 0.00 0.00 87 1014.1
20260906094657 22 114 0.0 0.0 0.00 0.00 0.00 87 1014.1
20260906094555 21 114 0.0 0.0 0.00 0.00 0.00 87 1014.1
20260906094456 22 114 0.0 0.0 0.00 0.00 0.00 86 1014.1
20260906094353 22 114 0.0 0.0 0.00 0.00 0.00 87 1014.1
20260906094250 22 114 0.0 0.0 0.00 0.00 0.00 87 1014.1
20260906094147 22 112 0.0 0.0 0.00 0.00 0.00 87 1014.1
20260906094048 21 111 0.0 0.0 0.00 0.00 0.00 87 1014.1
20260906093946 21 110 0.0 0.0 0.00 0.00 0.00 87 1014.1
20260906093848 22 109 0.0 0.0 0.00 0.00 0.00 87 1014.1
20260906093739 22 109 0.0 0.0 0.00 0.00 0.00 87 1014.1
20260906093638 22 109 0.0 0.0 0.00 0.00 0.00 87 1014.1
20260906093537 22 107 0.0 0.0 0.00 0.00 0.00 86 1014.1
20260906093436 22 105 0.0 0.0 0.00 0.00 0.00 86 1014.0
20260906093337 22 105 0.0 0.0 0.00 0.00 0.00 86 1014.1
20260906093232 22 105 0.0 0.0 0.00 0.00 0.00 86 1014.1
20260906093131 22 105 0.0 0.0 0.00 0.00 0.00 86 1014.0
20260906093030 22 104 0.0 0.0 0.00 0.00 0.00 86 1014.0
20260906092930 22 103 0.0 0.0 0.00 0.00 0.00 86 1014.0
20260906092831 22 102 0.0 0.0 0.00 0.00 0.00 86 1014.1
20260906092731 22 102 0.0 0.0 0.00 0.00 0.00 86 1014.1
20260906092629 22 101 0.0 0.0 0.00 0.00 0.00 86 1014.1
20260906092527 22 96 0.0 0.0 0.00 0.00 0.00 86 1014.1
20260906092428 22 75 0.0 0.0 0.00 0.00 0.00 86 1014.1
20260906092326 22 75 0.0 0.0 0.00 0.00 0.00 86 1014.1
20260906092219 22 74 0.0 0.0 0.00 0.00 0.00 86 1014.1
20260906092120 22 70 0.0 0.0 0.00 0.00 0.00 86 1014.2
20260906092020 22 5 0.0 0.0 0.00 0.00 0.00 86 1014.1
20260906091918 22 0 0.0 0.0 0.00 0.00 0.00 85 1014.1
20260906091815 22 0 0.0 0.0 0.00 0.00 0.00 85 1014.1
20260906091716 22 0 0.0 0.0 0.00 0.00 0.00 85 1014.1
20260906091612 22 0 0.0 0.0 0.00 0.00 0.00 85 1014.1
20260906091511 22 0 0.0 0.0 0.00 0.00 0.00 85 1014.1
20260906091412 22 0 0.0 0.0 0.00 0.00 0.00 85 1014.0
20260906091310 22 0 0.0 0.0 0.00 0.00 0.00 85 1014.1
20260906091203 22 0 0.0 0.0 0.00 0.00 0.00 85 1014.0
20260906091103 22 0 0.0 0.0 0.00 0.00 0.00 85 1014.1
20260906091004 22 0 0.0 0.0 0.00 0.00 0.00 85 1014.0
20260906090904 22 0 0.0 0.0 0.00 0.00 0.00 85 1014.1
20260906090803 22 0 0.0 0.0 0.00 0.00 0.00 85 1014.0
20260906090656 22 0 0.0 0.0 0.00 0.00 0.00 85 1014.0
20260906090558 22 0 0.0 0.0 0.00 0.00 0.00 85 1014.1
20260906090458 22 0 0.0 0.0 0.00 0.00 0.00 85 1014.1
20260906090355 22 0 0.0 0.0 0.00 0.00 0.00 85 1014.0
20260906090254 22 0 0.0 0.0 0.00 0.00 0.00 85 1014.0
20260906090148 22 0 0.0 0.0 0.00 0.00 0.00 85 1014.0
20260906090048 22 0 0.0 0.0 0.00 0.00 0.00 85 1014.0
20260906085947 22 0 0.0 0.0 0.00 0.00 0.00 85 1014.0
20260906085847 22 351 0.0 0.0 0.00 0.00 0.00 85 1014.0
20260906085748 22 349 0.0 0.0 0.00 0.00 0.00 85 1014.0
20260906085646 22 349 0.0 0.0 0.00 0.00 0.00 85 1014.0
20260906085546 22 349 0.0 0.0 0.00 0.00 0.00 85 1014.0
20260906085445 22 349 0.0 0.0 0.00 0.00 0.00 85 1014.0
20260906085344 22 346 0.0 0.0 0.00 0.00 0.00 85 1014.0
20260906085242 22 346 0.0 0.0 0.00 0.00 0.00 85 1014.0
20260906085135 22 323 0.0 0.0 0.00 0.00 0.00 85 1014.1
20260906085036 22 326 0.0 0.0 0.00 0.00 0.00 85 1014.0
20260906084936 22 330 0.0 0.0 0.00 0.00 0.00 85 1014.0
20260906084833 22 321 0.0 0.0 0.00 0.00 0.00 85 1014.0
20260906084732 22 311 0.0 0.0 0.00 0.00 0.00 85 1014.0
20260906084630 22 311 0.0 0.0 0.00 0.00 0.00 85 1014.0
20260906084528 22 307 0.0 0.0 0.00 0.00 0.00 85 1014.0
20260906084428 22 288 0.0 0.0 0.00 0.00 0.00 85 1014.0
20260906084328 22 279 0.0 0.0 0.00 0.00 0.00 85 1014.0
20260906084225 22 292 0.0 0.0 0.00 0.00 0.00 85 1013.9
20260906084118 22 293 0.0 0.0 0.00 0.00 0.00 85 1014.0
20260906084020 22 291 0.0 0.0 0.00 0.00 0.00 84 1014.0
20260906083920 22 309 0.0 0.0 0.00 0.00 0.00 84 1013.9
20260906083820 22 311 0.0 0.0 0.00 0.00 0.00 84 1014.0
20260906083720 22 315 0.0 0.0 0.00 0.00 0.00 84 1013.9
20260906083612 22 301 0.0 0.0 0.00 0.00 0.00 84 1013.8
20260906083512 22 308 0.0 0.0 0.00 0.00 0.00 84 1013.9
20260906083411 22 302 0.0 0.0 0.00 0.00 0.00 84 1013.9
20260906083310 22 304 0.0 0.0 0.00 0.00 0.00 84 1013.8
20260906083209 22 279 0.0 0.0 0.00 0.00 0.00 84 1013.9
20260906083103 22 299 0.0 0.0 0.00 0.00 0.00 84 1013.9
20260906083006 22 307 0.0 0.0 0.00 0.00 0.00 84 1013.8
20260906082904 22 298 0.0 0.0 0.00 0.00 0.00 84 1013.8
20260906082803 22 301 0.0 0.0 0.00 0.00 0.00 84 1013.8
20260906082703 22 304 0.0 0.0 0.00 0.00 0.00 84 1013.9
20260906082558 22 313 0.0 0.0 0.00 0.00 0.00 84 1013.9
20260906082500 22 296 0.0 0.0 0.00 0.00 0.00 84 1013.8
20260906082359 22 292 0.0 0.0 0.00 0.00 0.00 84 1013.9
20260906082300 22 279 0.0 0.0 0.00 0.00 0.00 84 1013.9
20260906082158 22 284 0.0 0.0 0.00 0.00 0.00 84 1013.8
20260906082051 22 284 0.0 0.0 0.00 0.00 0.00 84 1013.9
20260906081952 22 305 0.0 0.0 0.00 0.00 0.00 84 1013.9
20260906081851 22 306 0.0 0.0 0.00 0.00 0.00 84 1013.9
20260906081749 22 306 0.0 0.0 0.00 0.00 0.00 84 1013.8
20260906081648 22 306 0.0 0.0 0.00 0.00 0.00 84 1013.8
20260906081547 22 306 0.0 0.0 0.00 0.00 0.00 83 1013.9
20260906081446 22 307 0.0 0.0 0.00 0.00 0.00 83 1013.9
20260906081346 22 307 0.0 0.0 0.00 0.00 0.00 83 1013.9
20260906081243 22 307 0.0 0.0 0.00 0.00 0.00 83 1013.9
20260906081142 22 308 0.0 0.0 0.00 0.00 0.00 83 1013.9
20260906081038 22 307 0.0 0.0 0.00 0.00 0.00 83 1013.9
20260906080934 22 307 0.0 0.0 0.00 0.00 0.00 83 1013.9
20260906080835 22 308 0.0 0.0 0.00 0.00 0.00 82 1013.9
20260906080733 22 303 0.0 0.0 0.00 0.00 0.00 82 1013.9
20260906080634 23 312 0.0 0.0 0.00 0.00 0.00 82 1013.8
20260906080527 23 315 0.0 0.0 0.00 0.00 0.00 82 1013.8
20260906080427 23 327 0.0 0.0 0.00 0.00 0.00 82 1013.8
20260906080327 23 329 0.0 0.0 0.00 0.00 0.00 81 1013.8
20260906080225 23 333 0.0 0.0 0.00 0.00 0.00 81 1013.8
20260906080124 23 338 0.0 0.0 0.00 0.00 0.00 81 1013.8
20260906080017 23 330 0.0 0.0 0.00 0.00 0.00 81 1013.8
20260906075918 23 330 0.0 0.0 0.00 0.00 0.00 80 1013.8
20260906075816 23 324 0.0 0.0 0.00 0.00 0.00 80 1013.8
20260906075716 23 325 0.0 0.0 0.00 0.00 0.00 80 1013.8
20260906075618 23 313 0.0 0.0 0.00 0.00 0.00 80 1013.8
20260906075511 23 311 0.0 0.0 0.00 0.00 0.00 80 1013.8
20260906075410 23 311 0.0 0.0 0.00 0.00 0.00 80 1013.8
20260906075309 23 313 0.0 0.0 0.00 0.00 0.00 80 1013.7
20260906075210 23 313 0.0 0.0 0.00 0.00 0.00 80 1013.7
20260906075110 23 318 0.0 0.0 0.00 0.00 0.00 80 1013.7
20260906074959 23 318 0.0 0.0 0.00 0.00 0.00 80 1013.7
20260906074859 23 313 0.0 0.0 0.00 0.00 0.00 80 1013.7
20260906074759 23 327 0.0 0.0 0.00 0.00 0.00 80 1013.8
20260906074700 23 327 0.0 0.0 0.00 0.00 0.00 80 1013.8
20260906074600 23 322 0.0 0.0 0.00 0.00 0.00 80 1013.7
20260906074456 23 313 0.0 0.0 0.00 0.00 0.00 81 1013.8
20260906074357 23 309 0.0 0.0 0.00 0.00 0.00 81 1013.8
20260906074258 23 304 0.0 0.0 0.00 0.00 0.00 81 1013.7
20260906074158 23 307 0.0 0.0 0.00 0.00 0.00 81 1013.7
20260906074055 23 310 0.0 0.0 0.00 0.00 0.00 81 1013.7
20260906073955 23 307 0.0 0.0 0.00 0.00 0.00 81 1013.7
20260906073854 23 308 0.0 0.0 0.00 0.00 0.00 81 1013.8
20260906073755 23 304 0.0 0.0 0.00 0.00 0.00 81 1013.8
20260906073653 23 297 0.0 0.0 0.00 0.00 0.00 81 1013.7
20260906073554 23 282 0.0 0.0 0.00 0.00 0.00 81 1013.5
20260906073451 23 301 0.0 0.0 0.00 0.00 0.00 81 1013.5
20260906073352 23 293 0.0 0.0 0.00 0.00 0.00 81 1013.5
20260906073252 23 292 0.0 0.0 0.00 0.00 0.00 81 1013.5
20260906073152 23 302 0.0 0.0 0.00 0.00 0.00 81 1013.5
20260906073051 23 303 0.0 0.0 0.00 0.00 0.00 81 1013.5
20260906072951 23 301 0.0 0.0 0.00 0.00 0.00 81 1013.7
20260906072852 23 303 0.0 0.0 0.00 0.00 0.00 81 1013.5
20260906072748 23 299 0.0 0.0 0.00 0.00 0.00 82 1013.5
20260906072645 23 295 0.0 0.0 0.00 0.00 0.00 82 1013.7
20260906072546 23 294 0.0 0.0 0.00 0.00 0.00 82 1013.7
20260906072445 23 293 0.0 0.0 0.00 0.00 0.00 82 1013.5
20260906072344 23 292 0.0 0.0 0.00 0.00 0.00 82 1013.5
20260906072244 23 292 0.0 0.0 0.00 0.00 0.00 82 1013.5
20260906072142 23 232 0.0 0.0 0.00 0.00 0.00 82 1013.5
20260906072043 23 254 0.0 0.0 0.00 0.00 0.00 82 1013.4
20260906071943 23 238 0.0 0.0 0.00 0.00 0.00 82 1013.4
20260906071842 22 244 0.0 0.0 0.00 0.00 0.00 82 1013.4
20260906071742 22 259 0.0 0.0 0.00 0.00 0.00 82 1013.4
20260906071644 22 270 0.0 0.0 0.00 0.00 0.00 82 1013.4
20260906071542 22 271 0.0 0.0 0.00 0.00 0.00 83 1013.5
20260906071444 22 281 0.0 0.0 0.00 0.00 0.00 83 1013.5
20260906071340 22 278 0.0 0.0 0.00 0.00 0.00 83 1013.5
20260906071240 22 283 0.0 0.0 0.00 0.00 0.00 83 1013.5
20260906071142 22 275 0.0 0.0 0.00 0.00 0.00 83 1013.5
20260906071042 22 280 0.0 0.0 0.00 0.00 0.00 83 1013.5
20260906070942 22 288 0.0 0.0 0.00 0.00 0.00 83 1013.7
20260906070842 22 272 0.0 0.0 0.00 0.00 0.00 83 1013.5
20260906070741 22 271 0.0 0.0 0.00 0.00 0.00 83 1013.5
20260906070642 22 271 0.0 0.0 0.00 0.00 0.00 83 1013.5
20260906070540 22 270 0.0 0.0 0.00 0.00 0.00 83 1013.7
20260906070441 22 261 0.0 0.0 0.00 0.00 0.00 83 1013.7
20260906070341 22 261 0.0 0.0 0.00 0.00 0.00 83 1013.8
20260906070241 22 267 0.0 0.0 0.00 0.00 0.00 83 1013.8
20260906070140 22 272 0.0 0.0 0.00 0.00 0.00 83 1013.8
20260906070040 22 279 0.0 0.0 0.00 0.00 0.00 83 1013.8
20260906065941 22 284 0.0 0.0 0.00 0.00 0.00 83 1013.8
20260906065841 22 279 0.0 0.0 0.00 0.00 0.00 83 1013.9
20260906065740 22 282 0.0 0.0 0.00 0.00 0.00 83 1013.9
20260906065640 22 284 0.0 0.0 0.00 0.00 0.00 83 1013.9
20260906065541 22 279 0.0 0.0 0.00 0.00 0.00 83 1013.9
20260906065441 22 278 0.0 0.0 0.00 0.00 0.00 83 1013.9
20260906065340 22 277 0.0 0.0 0.00 0.00 0.00 83 1014.0
20260906065240 22 274 0.0 0.0 0.00 0.00 0.00 83 1013.9
20260906065141 22 277 0.0 0.0 0.00 0.00 0.00 83 1013.9
20260906065042 22 268 0.0 0.0 0.00 0.00 0.00 83 1014.0
20260906064934 22 267 0.0 0.0 0.00 0.00 0.00 83 1013.9
20260906064832 22 264 0.0 0.0 0.00 0.00 0.00 83 1014.0
20260906064733 22 264 0.0 0.0 0.00 0.00 0.00 83 1013.9
20260906064633 22 270 0.0 0.0 0.00 0.00 0.00 83 1014.0
20260906064533 22 270 0.0 0.0 0.00 0.00 0.00 83 1014.0
20260906064432 22 270 0.0 0.0 0.00 0.00 0.00 83 1014.0
20260906064333 22 266 0.0 0.0 0.00 0.00 0.00 83 1014.1
20260906064233 22 266 0.0 0.0 0.00 0.00 0.00 83 1014.1
20260906064133 22 265 0.0 0.0 0.00 0.00 0.00 83 1014.1
20260906064032 22 266 0.0 0.0 0.00 0.00 0.00 83 1014.2
20260906063934 22 266 0.0 0.0 0.00 0.00 0.00 83 1014.3
20260906063832 22 266 0.0 0.0 0.00 0.00 0.00 83 1014.4
20260906063732 22 266 0.0 0.0 0.00 0.00 0.00 83 1014.4
20260906063634 22 190 0.0 0.0 0.00 0.00 0.00 83 1014.4
20260906063534 22 174 0.0 0.0 0.00 0.00 0.00 83 1014.4
20260906063433 22 173 0.0 0.0 0.00 0.00 0.00 83 1014.5
20260906063333 22 172 0.0 0.0 0.00 0.00 0.00 83 1014.4
20260906063232 22 172 0.0 0.0 0.00 0.00 0.00 83 1014.5
20260906063133 22 172 0.0 0.0 0.00 0.00 0.00 83 1014.5
20260906063032 22 172 0.0 0.0 0.00 0.00 0.00 82 1014.4
20260906062932 22 170 0.0 0.0 0.00 0.00 0.00 82 1014.5
20260906062834 22 171 0.0 0.0 0.00 0.00 0.00 82 1014.5
20260906062733 22 171 0.0 0.0 0.00 0.00 0.00 82 1014.5
20260906062634 22 170 0.0 0.0 0.00 0.00 0.00 82 1014.5
20260906062532 22 168 0.0 0.0 0.00 0.00 0.00 82 1014.5
20260906062433 22 165 0.0 0.0 0.00 0.00 0.00 82 1014.5
20260906062332 22 163 0.0 0.0 0.00 0.00 0.00 82 1014.5
20260906062233 22 161 0.0 0.0 0.00 0.00 0.00 82 1014.5
20260906062133 22 160 0.0 0.0 0.00 0.00 0.00 82 1014.5
20260906062032 22 166 0.0 0.0 0.00 0.00 0.00 82 1014.5
20260906061934 22 167 0.0 0.0 0.00 0.00 0.00 82 1014.5
20260906061833 22 167 0.0 0.0 0.00 0.00 0.00 81 1014.5
20260906061733 22 167 0.0 0.0 0.00 0.00 0.00 81 1014.5
20260906061629 22 161 0.0 0.0 0.00 0.00 0.00 81 1014.5
20260906061529 22 136 0.0 0.0 0.00 0.00 0.00 81 1014.5
20260906061429 22 123 0.0 0.0 0.00 0.00 0.00 81 1014.6
20260906061328 22 210 0.0 0.0 0.00 0.00 0.00 81 1014.6
20260906061228 22 215 0.0 0.0 0.00 0.00 0.00 81 1014.7
20260906061128 22 215 0.0 0.0 0.00 0.00 0.00 81 1014.6
20260906061029 22 215 0.0 0.0 0.00 0.00 0.00 81 1014.6
20260906060928 22 215 0.0 0.0 0.00 0.00 0.00 81 1014.6
20260906060829 22 215 0.0 0.0 0.00 0.00 0.00 81 1014.6
20260906060728 23 215 0.0 0.0 0.00 0.00 0.00 81 1014.5
20260906060628 23 217 0.0 0.0 0.00 0.00 0.00 81 1014.5
20260906060528 23 217 0.0 0.0 0.00 0.00 0.00 81 1014.5
20260906060428 23 217 0.0 0.0 0.00 0.00 0.00 81 1014.6
20260906060330 23 216 0.0 0.0 0.00 0.00 0.00 81 1014.5
20260906060228 23 217 0.0 0.0 0.00 0.00 0.00 81 1014.5
20260906060128 23 216 0.0 0.0 0.00 0.00 0.00 81 1014.5
20260906060028 23 217 0.0 0.0 0.00 0.00 0.00 81 1014.6
20260906055929 23 216 0.0 0.0 0.00 0.00 0.00 80 1014.5
20260906055828 23 225 0.0 0.0 0.00 0.00 0.00 80 1014.5
20260906055728 23 226 0.0 0.0 0.00 0.00 0.00 80 1014.6
20260906055628 23 236 0.0 0.0 0.00 0.00 0.00 80 1014.6
20260906055529 23 236 0.0 0.0 0.00 0.00 0.00 80 1014.6
20260906055428 23 237 0.0 0.0 0.00 0.00 0.00 80 1014.6
20260906055329 23 237 0.0 0.0 0.00 0.00 0.00 80 1014.6
20260906055228 23 236 0.0 0.0 0.00 0.00 0.00 80 1014.6
20260906055130 23 236 0.0 0.0 0.00 0.00 0.00 80 1014.6
20260906055029 23 236 0.0 0.0 0.00 0.00 0.00 80 1014.6
20260906054929 23 236 0.0 0.0 0.00 0.00 0.00 80 1014.6
20260906054829 23 236 0.0 0.0 0.00 0.00 0.00 80 1014.6
20260906054729 23 237 0.0 0.0 0.00 0.00 0.00 80 1014.6
20260906054628 23 239 0.0 0.0 0.00 0.00 0.00 80 1014.6
20260906054528 23 240 0.0 0.0 0.00 0.00 0.00 80 1014.6
20260906054429 23 240 0.0 0.0 0.00 0.00 0.00 80 1014.6
20260906054326 23 170 0.0 0.0 0.00 0.00 0.00 79 1014.5
20260906054224 23 169 0.0 0.0 0.00 0.00 0.00 79 1014.6
20260906054124 23 170 0.0 0.0 0.00 0.00 0.00 79 1014.6
20260906054025 23 171 0.0 0.0 0.00 0.00 0.00 79 1014.6
20260906053925 23 171 0.0 0.0 0.00 0.00 0.00 79 1014.6
20260906053825 23 182 0.0 0.0 0.00 0.00 0.00 79 1014.6
20260906053724 23 182 0.0 0.0 0.00 0.00 0.00 79 1014.6
20260906053626 23 182 0.0 0.0 0.00 0.00 0.00 79 1014.6
20260906053525 23 188 0.0 0.0 0.00 0.00 0.00 79 1014.7
20260906053425 23 188 0.0 0.0 0.00 0.00 0.00 79 1014.6
20260906053326 23 188 0.0 0.0 0.00 0.00 0.00 79 1014.7
20260906053224 23 189 0.0 0.0 0.00 0.00 0.00 79 1014.6
20260906053125 23 189 0.0 0.0 0.00 0.00 0.00 79 1014.6
20260906053025 23 189 0.0 0.0 0.00 0.00 0.00 79 1014.6
20260906052924 23 190 0.0 0.0 0.00 0.00 0.00 79 1014.7
20260906052825 23 191 0.0 0.0 0.00 0.00 0.00 79 1014.7
20260906052725 23 191 0.0 0.0 0.00 0.00 0.00 79 1014.6
20260906052624 23 191 0.0 0.0 0.00 0.00 0.00 79 1014.6
20260906052524 23 191 0.0 0.0 0.00 0.00 0.00 79 1014.7
20260906052424 23 191 0.0 0.0 0.00 0.00 0.00 79 1014.6
20260906052325 23 191 0.0 0.0 0.00 0.00 0.00 79 1014.7
20260906052226 23 191 0.0 0.0 0.00 0.00 0.00 79 1014.6
20260906052124 23 191 0.0 0.0 0.00 0.00 0.00 79 1014.6
20260906052026 23 191 0.0 0.0 0.00 0.00 0.00 79 1014.6
20260906051924 23 191 0.0 0.0 0.00 0.00 0.00 79 1014.6
20260906051825 23 191 0.0 0.0 0.00 0.00 0.00 79 1014.7
20260906051724 23 191 0.0 0.0 0.00 0.00 0.00 79 1014.7
20260906051624 23 183 0.0 0.0 0.00 0.00 0.00 80 1014.7
20260906051526 23 182 0.0 0.0 0.00 0.00 0.00 80 1014.7
20260906051424 23 182 0.0 0.0 0.00 0.00 0.00 80 1014.8
20260906051325 23 182 0.0 0.0 0.00 0.00 0.00 80 1014.8
20260906051225 23 182 0.0 0.0 0.00 0.00 0.00 80 1014.8
20260906051126 23 182 0.0 0.0 0.00 0.00 0.00 80 1014.8
20260906051020 23 182 0.0 0.0 0.00 0.00 0.00 79 1014.8
20260906050918 23 182 0.0 0.0 0.00 0.00 0.00 79 1014.8
20260906050820 23 217 0.0 0.0 0.00 0.00 0.00 79 1014.8
20260906050719 23 244 0.0 0.0 0.00 0.00 0.00 79 1014.7
20260906050618 23 245 0.0 0.0 0.00 0.00 0.00 79 1014.8
20260906050517 23 245 0.0 0.0 0.00 0.00 0.00 79 1014.8
20260906050416 23 246 0.0 0.0 0.00 0.00 0.00 79 1014.8
20260906050314 23 333 0.0 0.0 0.00 0.00 0.00 80 1014.8
20260906050213 23 333 0.0 0.0 0.00 0.00 0.00 79 1014.8
20260906050111 23 333 0.0 0.0 0.00 0.00 0.00 79 1014.9
20260906050002 23 333 0.0 0.0 0.00 0.00 0.00 79 1014.9
20260906045900 23 333 0.0 0.0 0.00 0.00 0.00 79 1015.0
20260906045800 23 333 0.0 0.0 0.00 0.00 0.00 79 1014.9
20260906045700 23 332 0.0 0.0 0.00 0.00 0.00 79 1014.9
20260906045600 23 332 0.0 0.0 0.00 0.00 0.00 79 1014.8
20260906045500 23 332 0.0 0.0 0.00 0.00 0.00 79 1014.9
20260906045400 23 332 0.0 0.0 0.00 0.00 0.00 79 1014.8
20260906045258 23 332 0.0 0.0 0.00 0.00 0.00 79 1014.8
20260906045157 23 332 0.0 0.0 0.00 0.00 0.00 79 1014.9
20260906045055 23 332 0.0 0.0 0.00 0.00 0.00 79 1014.9
20260906044956 23 332 0.0 0.0 0.00 0.00 0.00 79 1014.8
20260906044853 23 332 0.0 0.0 0.00 0.00 0.00 79 1015.0
20260906044752 23 332 0.0 0.0 0.00 0.00 0.00 79 1014.9
20260906044651 23 332 0.0 0.0 0.00 0.00 0.00 80 1014.9
20260906044549 23 332 0.0 0.0 0.00 0.00 0.00 80 1014.9
20260906044442 23 332 0.0 0.0 0.00 0.00 0.00 80 1015.0
20260906044342 23 332 0.0 0.0 0.00 0.00 0.00 80 1014.9
20260906044243 23 333 0.0 0.0 0.00 0.00 0.00 80 1015.0
20260906044141 23 333 0.0 0.0 0.00 0.00 0.00 80 1014.9
20260906044038 23 333 0.0 0.0 0.00 0.00 0.00 80 1014.9
20260906043936 23 332 0.0 0.0 0.00 0.00 0.00 80 1014.9
20260906043832 23 332 0.0 0.0 0.00 0.00 0.00 80 1014.9
20260906043732 23 332 0.0 0.0 0.00 0.00 0.00 80 1015.0
20260906043634 23 332 0.0 0.0 0.00 0.00 0.00 80 1015.0
20260906043533 23 332 0.0 0.0 0.00 0.00 0.00 80 1015.0
20260906043433 23 333 0.0 0.0 0.00 0.00 0.00 80 1015.0
20260906043331 23 333 0.0 0.0 0.00 0.00 0.00 80 1015.0
20260906043230 23 332 0.0 0.0 0.00 0.00 0.00 81 1015.0
20260906043130 23 344 0.0 0.0 0.00 0.00 0.00 81 1015.1
20260906043027 23 344 0.0 0.0 0.00 0.00 0.00 80 1015.1
20260906042922 23 344 0.0 0.0 0.00 0.00 0.00 81 1015.1
20260906042820 23 344 0.0 0.0 0.00 0.00 0.00 81 1015.1
20260906042720 23 344 0.0 0.0 0.00 0.00 0.00 81 1015.3
20260906042619 23 344 0.0 0.0 0.00 0.00 0.00 81 1015.3
20260906042516 23 344 0.0 0.0 0.00 0.00 0.00 81 1015.1
20260906042410 23 344 0.0 0.0 0.00 0.00 0.00 81 1015.1
20260906042310 23 344 0.0 0.0 0.00 0.00 0.00 81 1015.1
20260906042211 23 344 0.0 0.0 0.00 0.00 0.00 81 1015.0
20260906042111 23 343 0.0 0.0 0.00 0.00 0.00 81 1015.1
20260906042009 23 344 0.0 0.0 0.00 0.00 0.00 81 1015.1
20260906041902 23 233 0.0 0.0 0.00 0.00 0.00 82 1015.1
20260906041802 23 229 0.0 0.0 0.00 0.00 0.00 82 1015.1
20260906041703 23 229 0.0 0.0 0.00 0.00 0.00 82 1015.1
20260906041602 23 229 0.0 0.0 0.00 0.00 0.00 82 1015.1
20260906041503 23 230 0.0 0.0 0.00 0.00 0.00 82 1015.1
20260906041402 23 230 0.0 0.0 0.00 0.00 0.00 82 1015.0
20260906041300 23 230 0.0 0.0 0.00 0.00 0.00 82 1015.3
20260906041200 23 230 0.0 0.0 0.00 0.00 0.00 82 1015.1
20260906041100 23 230 0.0 0.0 0.00 0.00 0.00 82 1015.3
20260906040956 23 230 0.0 0.0 0.00 0.00 0.00 82 1015.1
20260906040857 23 230 0.0 0.0 0.00 0.00 0.00 83 1015.1
20260906040755 23 230 0.0 0.0 0.00 0.00 0.00 83 1015.3
20260906040656 23 230 0.0 0.0 0.00 0.00 0.00 83 1015.4
20260906040552 23 230 0.0 0.0 0.00 0.00 0.00 83 1015.3
20260906040453 23 230 0.0 0.0 0.00 0.00 0.00 82 1015.3
20260906040354 23 230 0.0 0.0 0.00 0.00 0.00 82 1015.3
20260906040254 23 231 0.0 0.0 0.00 0.00 0.00 82 1015.3
20260906040152 23 231 0.0 0.0 0.00 0.00 0.00 82 1015.3
20260906040050 23 232 0.0 0.0 0.00 0.00 0.00 82 1015.3
20260906035950 23 232 0.0 0.0 0.00 0.00 0.00 82 1015.1
20260906035850 23 233 0.0 0.0 0.00 0.00 0.00 82 1015.1
20260906035752 23 234 0.0 0.0 0.00 0.00 0.00 82 1015.1
20260906035646 23 234 0.0 0.0 0.00 0.00 0.00 82 1015.1
20260906035546 23 232 0.0 0.0 0.00 0.00 0.00 82 1015.1
20260906035447 23 234 0.0 0.0 0.00 0.00 0.00 82 1015.1
20260906035347 23 248 0.0 0.0 0.00 0.00 0.00 82 1015.1
20260906035247 23 247 0.0 0.0 0.00 0.00 0.00 82 1015.3
20260906035146 23 249 0.0 0.0 0.00 0.00 0.00 82 1015.1
20260906035047 23 273 0.0 0.0 0.00 0.00 0.00 82 1015.1
20260906034947 23 273 0.0 0.0 0.00 0.00 0.00 82 1015.1
20260906034846 23 238 0.0 0.0 0.00 0.00 0.00 83 1015.1
20260906034747 23 238 0.0 0.0 0.00 0.00 0.00 83 1015.1
20260906034648 23 238 0.0 0.0 0.00 0.00 0.00 83 1015.0
20260906034546 23 239 0.0 0.0 0.00 0.00 0.00 83 1015.1
20260906034447 23 239 0.0 0.0 0.00 0.00 0.00 83 1015.3
20260906034346 23 239 0.0 0.0 0.00 0.00 0.00 83 1015.1
20260906034246 23 223 0.0 0.0 0.00 0.00 0.00 83 1015.3
20260906034148 23 228 0.0 0.0 0.00 0.00 0.00 82 1015.3
20260906034047 23 231 0.0 0.0 0.00 0.00 0.00 82 1015.1
20260906033948 23 232 0.0 0.0 0.00 0.00 0.00 82 1015.3
20260906033846 23 234 0.0 0.0 0.00 0.00 0.00 82 1015.1
20260906033746 23 234 0.0 0.0 0.00 0.00 0.00 82 1015.3
20260906033648 23 235 0.0 0.0 0.00 0.00 0.00 82 1015.5
20260906033547 23 236 0.0 0.0 0.00 0.00 0.00 82 1015.4
20260906033446 23 236 0.0 0.0 0.00 0.00 0.00 81 1015.5
20260906033346 23 236 0.0 0.0 0.00 0.00 0.00 81 1015.4
20260906033247 23 239 0.0 0.0 0.00 0.00 0.00 81 1015.4
20260906033147 23 239 0.0 0.0 0.00 0.00 0.00 81 1015.4
20260906033047 23 240 0.0 0.0 0.00 0.00 0.00 81 1015.4
20260906032946 23 240 0.0 0.0 0.00 0.00 0.00 81 1015.5
20260906032846 23 240 0.0 0.0 0.00 0.00 0.00 81 1015.4
20260906032746 23 240 0.0 0.0 0.00 0.00 0.00 80 1015.4
20260906032647 23 240 0.0 0.0 0.00 0.00 0.00 80 1015.4
20260906032547 23 240 0.0 0.0 0.00 0.00 0.00 81 1015.4
20260906032448 23 240 0.0 0.0 0.00 0.00 0.00 80 1015.3
20260906032342 23 245 0.0 0.0 0.00 0.00 0.00 80 1015.3
20260906032244 23 246 0.0 0.0 0.00 0.00 0.00 80 1015.4
20260906032142 23 247 0.0 0.0 0.00 0.00 0.00 80 1015.4
20260906032043 24 248 0.0 0.0 0.00 0.00 0.00 80 1015.4
20260906031943 24 248 0.0 0.0 0.00 0.00 0.00 80 1015.4
20260906031843 24 249 0.0 0.0 0.00 0.00 0.00 80 1015.5
20260906031743 24 249 0.0 0.0 0.00 0.00 0.00 80 1015.5
20260906031643 24 249 0.0 0.0 0.00 0.00 0.00 80 1015.4
20260906031544 24 248 0.0 0.0 0.00 0.00 0.00 79 1015.4
20260906031442 24 248 0.0 0.0 0.00 0.00 0.00 79 1015.3
20260906031344 24 249 0.0 0.0 0.00 0.00 0.00 79 1015.3
20260906031242 24 249 0.0 0.0 0.00 0.00 0.00 79 1015.3
20260906031142 24 250 0.0 0.0 0.00 0.00 0.00 78 1015.3
20260906031044 24 250 0.0 0.0 0.00 0.00 0.00 78 1015.3
20260906030943 24 278 0.0 0.0 0.00 0.00 0.00 78 1015.4
20260906030843 24 279 0.0 0.0 0.00 0.00 0.00 78 1015.3
20260906030742 24 278 0.0 0.0 0.00 0.00 0.00 78 1015.3
20260906030643 24 290 0.0 0.0 0.00 0.00 0.00 78 1015.3
20260906030542 24 307 0.0 0.0 0.00 0.00 0.00 78 1015.4
20260906030442 24 309 0.0 0.0 0.00 0.00 0.00 78 1015.4
20260906030343 24 309 0.0 0.0 0.00 0.00 0.00 78 1015.5
20260906030244 24 309 0.0 0.0 0.00 0.00 0.00 77 1015.4
20260906030142 24 299 0.0 0.0 0.00 0.00 0.00 77 1015.5
20260906030044 24 300 0.0 0.0 0.00 0.00 0.00 77 1015.4
20260906025942 24 302 0.0 0.0 0.00 0.00 0.00 77 1015.4
20260906025843 24 296 0.0 0.0 0.00 0.00 0.00 76 1015.4
20260906025742 24 302 0.0 0.0 0.00 0.00 0.00 76 1015.4
20260906025642 24 302 0.0 0.0 0.00 0.00 0.00 76 1015.3
20260906025543 24 288 0.0 0.0 0.00 0.00 0.00 76 1015.3
20260906025442 24 302 0.0 0.0 0.00 0.00 0.00 76 1015.3
20260906025343 24 319 0.0 0.0 0.00 0.00 0.00 76 1015.4
20260906025243 24 297 0.0 0.0 0.00 0.00 0.00 76 1015.3
20260906025144 24 297 0.0 0.0 0.00 0.00 0.00 76 1015.3
20260906025040 24 297 0.0 0.0 0.00 0.00 0.00 76 1015.3
20260906024938 24 300 0.0 0.0 0.00 0.00 0.00 75 1015.1
20260906024840 24 300 0.0 0.0 0.00 0.00 0.00 75 1015.3
20260906024739 24 298 0.0 0.0 0.00 0.00 0.00 75 1015.1
20260906024639 24 298 0.0 0.0 0.00 0.00 0.00 75 1015.0
20260906024538 24 298 0.0 0.0 0.00 0.00 0.00 75 1015.0
20260906024438 24 312 0.0 0.0 0.00 0.00 0.00 76 1015.0
20260906024340 24 303 0.0 0.0 0.00 0.00 0.00 75 1014.9
20260906024238 24 295 0.0 0.0 0.00 0.00 0.00 75 1014.9
20260906024138 24 311 0.0 0.0 0.00 0.00 0.00 76 1014.9
20260906024040 24 283 0.0 0.0 0.00 0.00 0.00 75 1015.0
20260906023938 24 296 0.0 0.0 0.00 0.00 0.00 76 1015.0
20260906023839 24 302 0.0 0.0 0.00 0.00 0.00 76 1015.0
20260906023738 24 292 0.0 0.0 0.00 0.00 0.00 76 1015.0
20260906023638 24 279 0.0 0.0 0.00 0.00 0.00 76 1015.0
20260906023538 24 273 0.0 0.0 0.00 0.00 0.00 77 1014.9
20260906023438 24 286 0.0 0.0 0.00 0.00 0.00 77 1015.0
20260906023340 24 305 0.0 0.0 0.00 0.00 0.00 76 1015.0
20260906023236 24 275 0.0 0.0 0.00 0.00 0.00 76 1015.0
20260906023137 24 303 0.0 0.0 0.00 0.00 0.00 77 1015.1
20260906023034 24 317 0.0 0.0 0.00 0.00 0.00 76 1015.1
20260906022930 24 289 0.0 0.0 0.00 0.00 0.00 76 1015.1
20260906022831 24 323 0.0 0.0 0.00 0.00 0.00 76 1015.1
20260906022729 24 263 0.0 0.0 0.00 0.00 0.00 76 1015.1
20260906022621 25 294 0.0 0.0 0.00 0.00 0.00 76 1015.1
20260906022520 25 310 0.0 0.0 0.00 0.00 0.00 76 1015.1
20260906022418 25 297 0.0 0.0 0.00 0.00 0.00 76 1015.3
20260906022318 25 300 0.0 0.0 0.00 0.00 0.00 76 1015.3
20260906022217 25 266 0.0 0.0 0.00 0.00 0.00 76 1015.1
20260906022113 25 296 0.0 0.0 0.00 0.00 0.00 76 1015.1
20260906022013 25 288 0.0 0.0 0.00 0.00 0.00 75 1015.1
20260906021912 25 267 0.0 0.0 0.00 0.00 0.00 76 1015.1
20260906021814 25 295 0.0 0.0 0.00 0.00 0.00 76 1015.0
20260906021710 25 288 0.0 0.0 0.00 0.00 0.00 75 1015.1
20260906021610 25 291 0.0 0.0 0.00 0.00 0.00 75 1015.1
20260906021508 25 288 0.0 0.0 0.00 0.00 0.00 75 1015.3
20260906021406 25 294 0.0 0.0 0.00 0.00 0.00 75 1015.3
20260906021307 25 278 0.0 0.0 0.00 0.00 0.00 75 1015.1
20260906021203 25 305 0.0 0.0 0.00 0.00 0.00 75 1015.1
20260906021054 25 292 0.0 0.0 0.00 0.00 0.00 75 1015.1
20260906020953 25 311 0.0 0.0 0.00 0.00 0.00 75 1015.0
20260906020854 25 301 0.0 0.0 0.00 0.00 0.00 74 1015.0
20260906020752 25 288 0.0 0.0 0.00 0.00 0.00 75 1014.9
20260906020653 25 293 0.0 0.0 0.00 0.00 0.00 74 1015.0
20260906020550 25 282 0.0 0.0 0.00 0.00 0.00 74 1014.9
20260906020449 25 270 0.0 0.0 0.00 0.00 0.00 74 1014.9
20260906020352 25 284 0.0 0.0 0.00 0.00 0.00 74 1014.9
20260906020249 25 281 0.0 0.0 0.00 0.00 0.00 74 1014.8
20260906020147 25 277 0.0 0.0 0.00 0.00 0.00 74 1014.9
20260906020045 25 292 0.0 0.0 0.00 0.00 0.00 74 1015.0
20260906015944 25 306 0.0 0.0 0.00 0.00 0.00 74 1015.0
20260906015842 25 313 0.0 0.0 0.00 0.00 0.00 74 1014.9
20260906015744 25 282 0.0 0.0 0.00 0.00 0.00 75 1014.9
20260906015641 25 273 0.0 0.0 0.00 0.00 0.00 74 1014.9
20260906015538 25 274 0.0 0.0 0.00 0.00 0.00 74 1014.9
20260906015434 25 283 0.0 0.0 0.00 0.00 0.00 74 1014.9
20260906015334 25 308 0.0 0.0 0.00 0.00 0.00 74 1014.9
20260906015234 25 294 0.0 0.0 0.00 0.00 0.00 74 1015.0
20260906015130 25 312 0.0 0.0 0.00 0.00 0.00 74 1014.9
20260906015023 25 303 0.0 0.0 0.00 0.00 0.00 74 1014.9
20260906014923 25 304 0.0 0.0 0.00 0.00 0.00 74 1015.0
20260906014822 25 292 0.0 0.0 0.00 0.00 0.00 74 1014.8
20260906014722 25 313 0.0 0.0 0.00 0.00 0.00 74 1014.9
20260906014623 25 296 0.0 0.0 0.00 0.00 0.00 74 1014.9
20260906014519 25 293 0.0 0.0 0.00 0.00 0.00 74 1015.0
20260906014416 25 291 0.0 0.0 0.00 0.00 0.00 74 1014.9
20260906014318 25 307 0.0 0.0 0.00 0.00 0.00 74 1014.9
20260906014216 25 296 0.0 0.0 0.00 0.00 0.00 74 1014.9
20260906014117 25 325 0.0 0.0 0.00 0.00 0.00 74 1015.0
20260906014007 25 294 0.0 0.0 0.00 0.00 0.00 74 1014.9
20260906013907 25 296 0.0 0.0 0.00 0.00 0.00 74 1014.8
20260906013806 25 298 0.0 0.0 0.00 0.00 0.00 74 1014.9
20260906013707 25 278 0.0 0.0 0.00 0.00 0.00 73 1014.8
20260906013607 25 286 0.0 0.0 0.00 0.00 0.00 73 1014.8
20260906013500 25 317 0.0 0.0 0.00 0.00 0.00 73 1014.9
20260906013400 25 300 0.0 0.0 0.00 0.00 0.00 73 1014.9
20260906013300 25 287 0.0 0.0 0.00 0.00 0.00 73 1014.9
20260906013202 25 309 0.0 0.0 0.00 0.00 0.00 73 1014.8
20260906013100 25 309 0.0 0.0 0.00 0.00 0.00 73 1014.8
20260906013002 25 304 0.0 0.0 0.00 0.00 0.00 73 1014.9
20260906012858 25 303 0.0 0.0 0.00 0.00 0.00 73 1014.9
20260906012758 25 292 0.0 0.0 0.00 0.00 0.00 73 1014.9
20260906012656 25 298 0.0 0.0 0.00 0.00 0.00 73 1014.9
20260906012553 25 298 0.0 0.0 0.00 0.00 0.00 73 1014.8
20260906012443 25 281 0.0 0.0 0.00 0.00 0.00 72 1014.9
20260906012343 25 288 0.0 0.0 0.00 0.00 0.00 72 1014.9
20260906012243 25 303 0.0 0.0 0.00 0.00 0.00 72 1014.9
20260906012142 25 270 0.0 0.0 0.00 0.00 0.00 72 1014.8
20260906012043 25 271 0.0 0.0 0.00 0.00 0.00 71 1014.7
20260906011939 25 288 0.0 0.0 0.00 0.00 0.00 71 1014.8
20260906011839 25 288 0.0 0.0 0.00 0.00 0.00 71 1014.8
20260906011738 25 288 0.0 0.0 0.00 0.00 0.00 71 1014.7
20260906011638 25 286 0.0 0.0 0.00 0.00 0.00 71 1014.8
20260906011535 25 292 0.0 0.0 0.00 0.00 0.00 71 1014.7
20260906011432 25 282 0.0 0.0 0.00 0.00 0.00 71 1014.7
20260906011332 25 285 0.0 0.0 0.00 0.00 0.00 71 1014.8
20260906011233 25 300 0.0 0.0 0.00 0.00 0.00 71 1014.8
20260906011131 25 300 0.0 0.0 0.00 0.00 0.00 70 1014.7
20260906011029 25 288 0.0 0.0 0.00 0.00 0.00 70 1014.7
20260906010924 25 286 0.0 0.0 0.00 0.00 0.00 70 1014.7
20260906010822 25 289 0.0 0.0 0.00 0.00 0.00 70 1014.7
20260906010720 25 282 0.0 0.0 0.00 0.00 0.00 70 1014.7
20260906010622 25 303 0.0 0.0 0.00 0.00 0.00 70 1014.7
20260906010519 25 304 0.0 0.0 0.00 0.00 0.00 70 1014.6
20260906010420 25 319 0.0 0.0 0.00 0.00 0.00 70 1014.6
20260906010316 25 320 0.0 0.0 0.00 0.00 0.00 71 1014.6
20260906010216 25 317 0.0 0.0 0.00 0.00 0.00 71 1014.5
20260906010115 25 293 0.0 0.0 0.00 0.00 0.00 71 1014.6
20260906010012 25 293 0.0 0.0 0.00 0.00 0.00 71 1014.5
20260906005908 25 292 0.0 0.0 0.00 0.00 0.00 71 1014.6
20260906005807 25 259 0.0 0.0 0.00 0.00 0.00 72 1014.5
20260906005707 25 282 0.0 0.0 0.00 0.00 0.00 72 1014.5
20260906005606 25 282 0.0 0.0 0.00 0.00 0.00 72 1014.5
20260906005507 25 282 0.0 0.0 0.00 0.00 0.00 72 1014.5
20260906005401 25 277 0.0 0.0 0.00 0.00 0.00 72 1014.4
20260906005301 25 271 0.0 0.0 0.00 0.00 0.00 72 1014.5
20260906005201 25 288 0.0 0.0 0.00 0.00 0.00 72 1014.5
20260906005059 25 289 0.0 0.0 0.00 0.00 0.00 72 1014.5
20260906004956 25 287 0.0 0.0 0.00 0.00 0.00 72 1014.5
20260906004853 25 300 0.0 0.0 0.00 0.00 0.00 72 1014.5
20260906004750 25 303 0.0 0.0 0.00 0.00 0.00 72 1014.5
20260906004651 25 302 0.0 0.0 0.00 0.00 0.00 72 1014.5
20260906004551 25 302 0.0 0.0 0.00 0.00 0.00 72 1014.5
20260906004451 25 304 0.0 0.0 0.00 0.00 0.00 72 1014.5
20260906004347 25 297 0.0 0.0 0.00 0.00 0.00 72 1014.5
20260906004247 25 298 0.0 0.0 0.00 0.00 0.00 72 1014.4
20260906004146 25 296 0.0 0.0 0.00 0.00 0.00 72 1014.4
20260906004047 25 292 0.0 0.0 0.00 0.00 0.00 72 1014.4
20260906003944 25 294 0.0 0.0 0.00 0.00 0.00 72 1014.4
20260906003838 25 291 0.0 0.0 0.00 0.00 0.00 72 1014.4
20260906003738 25 306 0.0 0.0 0.00 0.00 0.00 72 1014.4
20260906003637 25 304 0.0 0.0 0.00 0.00 0.00 72 1014.4
20260906003537 25 305 0.0 0.0 0.00 0.00 0.00 73 1014.4
20260906003435 25 295 0.0 0.0 0.00 0.00 0.00 73 1014.4
20260906003336 25 307 0.0 0.0 0.00 0.00 0.00 73 1014.4
20260906003232 25 281 0.0 0.0 0.00 0.00 0.00 73 1014.3
20260906003132 25 281 0.0 0.0 0.00 0.00 0.00 73 1014.4
20260906003031 25 280 0.0 0.0 0.00 0.00 0.00 73 1014.4
20260906002929 25 275 0.0 0.0 0.00 0.00 0.00 73 1014.4
20260906002828 25 271 0.0 0.0 0.00 0.00 0.00 74 1014.3
20260906002727 25 272 0.0 0.0 0.00 0.00 0.00 74 1014.3
20260906002627 25 272 0.0 0.0 0.00 0.00 0.00 74 1014.3
20260906002525 25 272 0.0 0.0 0.00 0.00 0.00 74 1014.3
20260906002423 25 275 0.0 0.0 0.00 0.00 0.00 74 1014.2
20260906002314 25 274 0.0 0.0 0.00 0.00 0.00 74 1014.2
20260906002213 25 275 0.0 0.0 0.00 0.00 0.00 74 1014.1
20260906002113 25 275 0.0 0.0 0.00 0.00 0.00 73 1014.1
20260906002012 25 274 0.0 0.0 0.00 0.00 0.00 73 1014.1
20260906001912 25 275 0.0 0.0 0.00 0.00 0.00 74 1013.9
20260906001807 25 275 0.0 0.0 0.00 0.00 0.00 73 1014.0
20260906001706 25 275 0.0 0.0 0.00 0.00 0.00 73 1013.9
20260906001606 25 276 0.0 0.0 0.00 0.00 0.00 73 1014.0
20260906001506 25 271 0.0 0.0 0.00 0.00 0.00 74 1014.0
20260906001406 25 271 0.0 0.0 0.00 0.00 0.00 73 1014.0
20260906001305 25 276 0.0 0.0 0.00 0.00 0.00 74 1013.9
20260906001204 25 277 0.0 0.0 0.00 0.00 0.00 74 1013.9
20260906001104 25 277 0.0 0.0 0.00 0.00 0.00 74 1014.0
20260906001003 25 277 0.0 0.0 0.00 0.00 0.00 73 1013.9
20260906000901 25 276 0.0 0.0 0.00 0.00 0.00 74 1013.9
20260906000754 25 270 0.0 0.0 0.00 0.00 0.00 74 1013.9
20260906000655 25 270 0.0 0.0 0.00 0.00 0.00 74 1013.9
20260906000554 25 270 0.0 0.0 0.00 0.00 0.00 74 1013.9
20260906000455 25 267 0.0 0.0 0.00 0.00 0.00 74 1013.9
20260906000350 25 267 0.0 0.0 0.00 0.00 0.00 74 1014.0
20260906000249 25 265 0.0 0.0 0.00 0.00 0.00 74 1014.0
20260906000148 25 268 0.0 0.0 0.00 0.00 0.00 74 1013.9
20260906000048 25 283 0.0 0.0 0.00 0.00 0.00 74 1013.9
20260905235947 25 296 0.0 0.0 0.00 0.00 0.00 75 1013.9
20260905235846 25 270 0.0 0.0 0.00 0.00 0.00 74 1013.8
20260905235745 25 301 0.0 0.0 0.00 0.00 0.00 74 1013.8
20260905235642 25 278 0.0 0.0 0.00 0.00 0.00 75 1013.8
20260905235543 25 267 0.0 0.0 0.00 0.00 0.00 74 1013.8
20260905235441 25 269 0.0 0.0 0.00 0.00 0.00 74 1013.8
20260905235339 25 273 0.0 0.0 0.00 0.00 0.00 74 1013.7
20260905235231 25 271 0.0 0.0 0.00 0.00 0.00 74 1013.7
20260905235128 25 271 0.0 0.0 0.00 0.00 0.00 75 1013.5
20260905235028 25 280 0.0 0.0 0.00 0.00 0.00 74 1013.7
20260905234928 25 279 0.0 0.0 0.00 0.00 0.00 75 1013.7
20260905234829 25 278 0.0 0.0 0.00 0.00 0.00 74 1013.7
20260905234728 25 279 0.0 0.0 0.00 0.00 0.00 75 1013.7
20260905234626 25 302 0.0 0.0 0.00 0.00 0.00 75 1013.8
20260905234524 25 302 0.0 0.0 0.00 0.00 0.00 74 1013.8
20260905234426 25 302 0.0 0.0 0.00 0.00 0.00 74 1013.8
20260905234323 25 302 0.0 0.0 0.00 0.00 0.00 75 1013.7
20260905234219 25 234 0.0 0.0 0.00 0.00 0.00 74 1013.7
20260905234119 25 234 0.0 0.0 0.00 0.00 0.00 74 1013.8
20260905234017 25 234 0.0 0.0 0.00 0.00 0.00 74 1013.7
20260905233920 25 234 0.0 0.0 0.00 0.00 0.00 74 1013.7
20260905233817 25 234 0.0 0.0 0.00 0.00 0.00 74 1013.7
20260905233706 25 225 0.0 0.0 0.00 0.00 0.00 74 1013.8
20260905233605 25 225 0.0 0.0 0.00 0.00 0.00 74 1013.8
20260905233506 25 225 0.0 0.0 0.00 0.00 0.00 74 1013.8
20260905233406 25 225 0.0 0.0 0.00 0.00 0.00 74 1013.8
20260905233307 25 205 0.0 0.0 0.00 0.00 0.00 73 1013.7
20260905233202 25 193 0.0 0.0 0.00 0.00 0.00 73 1013.7
20260905233102 26 193 0.0 0.0 0.00 0.00 0.00 73 1013.8
20260905233003 26 193 0.0 0.0 0.00 0.00 0.00 73 1013.7
20260905232903 26 193 0.0 0.0 0.00 0.00 0.00 73 1013.7
20260905232801 26 193 0.0 0.0 0.00 0.00 0.00 73 1013.8
20260905232658 26 193 0.0 0.0 0.00 0.00 0.00 73 1013.7
20260905232558 26 193 0.0 0.0 0.00 0.00 0.00 73 1013.7
20260905232457 26 193 0.0 0.0 0.00 0.00 0.00 73 1013.7
20260905232357 26 193 0.0 0.0 0.00 0.00 0.00 73 1013.8
20260905232255 26 193 0.0 0.0 0.00 0.00 0.00 73 1013.7
20260905232148 26 193 0.0 0.0 0.00 0.00 0.00 73 1013.8
20260905232049 26 193 0.0 0.0 0.00 0.00 0.00 73 1013.8
20260905231946 26 193 0.0 0.0 0.00 0.00 0.00 73 1013.7
20260905231847 26 193 0.0 0.0 0.00 0.00 0.00 73 1013.7
20260905231745 26 193 0.0 0.0 0.00 0.00 0.00 73 1013.8
20260905231644 26 194 0.0 0.0 0.00 0.00 0.00 72 1013.7
20260905231543 26 194 0.0 0.0 0.00 0.00 0.00 72 1013.7
20260905231442 26 194 0.0 0.0 0.00 0.00 0.00 72 1013.7
20260905231342 26 194 0.0 0.0 0.00 0.00 0.00 72 1013.7
20260905231239 26 194 0.0 0.0 0.00 0.00 0.00 72 1013.7
20260905231139 26 194 0.0 0.0 0.00 0.00 0.00 72 1013.7
20260905231037 26 194 0.0 0.0 0.00 0.00 0.00 72 1013.4
20260905230936 26 194 0.0 0.0 0.00 0.00 0.00 72 1013.4
20260905230836 26 194 0.0 0.0 0.00 0.00 0.00 71 1013.4
20260905230732 26 194 0.0 0.0 0.00 0.00 0.00 72 1013.5
20260905230626 26 194 0.0 0.0 0.00 0.00 0.00 71 1013.5
20260905230527 26 194 0.0 0.0 0.00 0.00 0.00 71 1013.4
20260905230425 26 194 0.0 0.0 0.00 0.00 0.00 71 1013.5
20260905230324 26 194 0.0 0.0 0.00 0.00 0.00 71 1013.5
20260905230223 26 194 0.0 0.0 0.00 0.00 0.00 71 1013.5
20260905230117 26 194 0.0 0.0 0.00 0.00 0.00 71 1013.5
20260905230017 26 194 0.0 0.0 0.00 0.00 0.00 71 1013.7
20260905225917 26 237 0.0 0.0 0.00 0.00 0.00 71 1013.7
20260905225817 26 238 0.0 0.0 0.00 0.00 0.00 71 1013.5
20260905225717 26 238 0.0 0.0 0.00 0.00 0.00 71 1013.7
20260905225616 26 237 0.0 0.0 0.00 0.00 0.00 71 1013.5
20260905225515 26 237 0.0 0.0 0.00 0.00 0.00 71 1013.5
20260905225414 26 237 0.0 0.0 0.00 0.00 0.00 71 1013.5
20260905225313 26 237 0.0 0.0 0.00 0.00 0.00 71 1013.5
20260905225211 26 237 0.0 0.0 0.00 0.00 0.00 70 1013.7
20260905225103 26 237 0.0 0.0 0.00 0.00 0.00 70 1013.5
20260905225001 26 237 0.0 0.0 0.00 0.00 0.00 70 1013.5
20260905224900 26 237 0.0 0.0 0.00 0.00 0.00 70 1013.5
20260905224801 26 237 0.0 0.0 0.00 0.00 0.00 70 1013.5
20260905224701 26 237 0.0 0.0 0.00 0.00 0.00 70 1013.5
20260905224557 26 237 0.0 0.0 0.00 0.00 0.00 70 1013.5
20260905224457 26 237 0.0 0.0 0.00 0.00 0.00 69 1013.7
20260905224357 26 237 0.0 0.0 0.00 0.00 0.00 70 1013.7
20260905224257 27 226 0.0 0.0 0.00 0.00 0.00 71 1013.8
20260905224154 27 226 0.0 0.0 0.00 0.00 0.00 70 1013.7
20260905224055 27 226 0.0 0.0 0.00 0.00 0.00 69 1013.7
20260905223954 27 226 0.0 0.0 0.00 0.00 0.00 70 1013.7
20260905223850 27 226 0.0 0.0 0.00 0.00 0.00 69 1013.8
20260905223751 27 225 0.0 0.0 0.00 0.00 0.00 68 1013.8
20260905223650 27 225 0.0 0.0 0.00 0.00 0.00 69 1013.8
20260905223543 27 218 0.0 0.0 0.00 0.00 0.00 69 1013.8
20260905223442 27 196 0.0 0.0 0.00 0.00 0.00 69 1013.8
20260905223342 27 196 0.0 0.0 0.00 0.00 0.00 69 1013.8
20260905223241 27 200 0.0 0.0 0.00 0.00 0.00 69 1013.8
20260905223139 27 201 0.0 1.6 0.00 0.00 0.00 69 1013.7
20260905223035 27 202 0.0 4.8 0.00 0.00 0.00 69 1013.8
20260905222937 27 204 0.0 4.8 0.00 0.00 0.00 69 1013.8
20260905222836 27 204 0.0 4.8 0.00 0.00 0.00 69 1013.8
20260905222735 27 204 0.0 4.8 0.00 0.00 0.00 68 1013.7
20260905222633 27 204 0.0 4.8 0.00 0.00 0.00 68 1013.7
20260905222530 27 184 0.0 4.8 0.00 0.00 0.00 68 1013.5
20260905222430 27 242 0.0 4.8 0.00 0.00 0.00 68 1013.8
20260905222330 27 242 1.6 4.8 0.00 0.00 0.00 67 1013.7
20260905222228 27 242 1.6 6.4 0.00 0.00 0.00 68 1013.7
20260905222126 27 273 1.6 6.4 0.00 0.00 0.00 68 1013.7
20260905222018 27 211 1.6 6.4 0.00 0.00 0.00 68 1013.7
20260905221917 27 211 1.6 6.4 0.00 0.00 0.00 68 1013.7
20260905221817 27 211 1.6 6.4 0.00 0.00 0.00 68 1013.7
20260905221716 27 241 1.6 9.7 0.00 0.00 0.00 68 1013.5
20260905221616 27 242 1.6 9.7 0.00 0.00 0.00 68 1013.7
20260905221511 27 241 1.6 9.7 0.00 0.00 0.00 67 1013.7
20260905221413 27 242 1.6 9.7 0.00 0.00 0.00 66 1013.7
20260905221312 27 234 1.6 9.7 0.00 0.00 0.00 68 1013.7
20260905221213 27 175 1.6 9.7 0.00 0.00 0.00 67 1013.5
20260905221110 27 175 1.6 9.7 0.00 0.00 0.00 68 1013.5
20260905221006 28 204 1.6 9.7 0.00 0.00 0.00 67 1013.5
20260905220907 28 204 1.6 9.7 0.00 0.00 0.00 68 1013.5
20260905220806 28 205 1.6 9.7 0.00 0.00 0.00 66 1013.7
20260905220706 28 290 1.6 6.4 0.00 0.00 0.00 66 1013.5
20260905220604 28 290 1.6 6.4 0.00 0.00 0.00 66 1013.5
20260905220455 28 189 1.6 4.8 0.00 0.00 0.00 67 1013.7
20260905220355 28 189 1.6 4.8 0.00 0.00 0.00 67 1013.7
20260905220253 28 189 1.6 4.8 0.00 0.00 0.00 67 1013.7
20260905220154 28 189 1.6 4.8 0.00 0.00 0.00 67 1013.7
20260905220055 28 189 1.6 4.8 0.00 0.00 0.00 66 1013.7
20260905215948 28 193 1.6 4.8 0.00 0.00 0.00 66 1013.8
20260905215848 28 301 1.6 4.8 0.00 0.00 0.00 66 1013.8
20260905215748 28 301 1.6 4.8 0.00 0.00 0.00 66 1013.8
20260905215648 28 300 1.6 4.8 0.00 0.00 0.00 65 1013.8
20260905215549 28 298 1.6 4.8 0.00 0.00 0.00 66 1013.8
20260905215446 28 346 1.6 4.8 0.00 0.00 0.00 65 1013.9
20260905215347 28 346 1.6 4.8 0.00 0.00 0.00 65 1013.8
20260905215246 28 304 1.6 4.8 0.00 0.00 0.00 65 1013.8
20260905215145 28 182 1.6 3.2 0.00 0.00 0.00 66 1013.9
20260905215043 28 181 1.6 4.8 0.00 0.00 0.00 66 1013.9
20260905214935 28 248 1.6 6.4 0.00 0.00 0.00 66 1014.0
20260905214833 28 249 1.6 6.4 0.00 0.00 0.00 67 1014.0
20260905214732 28 247 1.6 6.4 0.00 0.00 0.00 66 1014.0
20260905214631 28 247 1.6 6.4 0.00 0.00 0.00 66 1014.0
20260905214533 28 248 1.6 6.4 0.00 0.00 0.00 67 1014.0
20260905214428 28 236 1.6 6.4 0.00 0.00 0.00 67 1014.0
20260905214329 28 238 1.6 6.4 0.00 0.00 0.00 65 1014.0
20260905214229 28 239 1.6 6.4 0.00 0.00 0.00 65 1014.0
20260905214128 28 234 1.6 6.4 0.00 0.00 0.00 65 1014.0
20260905214027 28 81 1.6 4.8 0.00 0.00 0.00 66 1014.1
20260905213923 28 197 1.6 6.4 0.00 0.00 0.00 65 1014.1
20260905213819 28 254 1.6 6.4 0.00 0.00 0.00 66 1014.1
20260905213721 28 155 1.6 6.4 0.00 0.00 0.00 66 1014.1
20260905213621 28 159 1.6 6.4 0.00 0.00 0.00 65 1014.1
20260905213521 28 150 1.6 6.4 0.00 0.00 0.00 65 1014.0
20260905213414 28 99 1.6 6.4 0.00 0.00 0.00 67 1014.1
20260905213312 28 119 3.2 6.4 0.00 0.00 0.00 67 1014.1
20260905213212 28 116 3.2 6.4 0.00 0.00 0.00 65 1014.0
20260905213113 28 151 3.2 6.4 0.00 0.00 0.00 65 1014.0
20260905213011 28 148 3.2 6.4 0.00 0.00 0.00 66 1014.0
20260905212904 28 193 3.2 6.4 0.00 0.00 0.00 66 1014.1
20260905212804 27 151 3.2 6.4 0.00 0.00 0.00 67 1014.0
20260905212704 27 112 1.6 6.4 0.00 0.00 0.00 66 1014.0
20260905212604 27 126 1.6 6.4 0.00 0.00 0.00 67 1014.1
20260905212505 27 333 1.6 6.4 0.00 0.00 0.00 69 1014.0
20260905212400 27 320 1.6 6.4 0.00 0.00 0.00 67 1014.0
20260905212301 27 316 1.6 6.4 0.00 0.00 0.00 66 1013.9
20260905212200 27 155 1.6 6.4 0.00 0.00 0.00 69 1014.0
20260905212059 27 165 1.6 6.4 0.00 0.00 0.00 70 1014.0
20260905211959 27 165 1.6 6.4 0.00 0.00 0.00 69 1013.8
20260905211849 27 162 3.2 8.0 0.00 0.00 0.00 68 1013.9
20260905211749 27 314 3.2 8.0 0.00 0.00 0.00 68 1013.9
20260905211649 27 30 3.2 8.0 0.00 0.00 0.00 69 1013.8
20260905211548 27 312 3.2 8.0 0.00 0.00 0.00 70 1013.8
20260905211448 27 304 3.2 8.0 0.00 0.00 0.00 70 1013.8
20260905211346 27 304 3.2 16.1 0.00 0.00 0.00 70 1013.8
20260905211245 27 298 3.2 16.1 0.00 0.00 0.00 69 1013.8
20260905211144 27 271 3.2 16.1 0.00 0.00 0.00 71 1013.8
20260905211045 27 232 3.2 16.1 0.00 0.00 0.00 70 1013.9
20260905210943 27 169 3.2 16.1 0.00 0.00 0.00 69 1013.9
20260905210838 27 191 3.2 16.1 0.00 0.00 0.00 69 1013.7
20260905210739 26 188 3.2 16.1 0.00 0.00 0.00 70 1013.7
20260905210637 26 260 3.2 16.1 0.00 0.00 0.00 70 1013.7
20260905210538 26 186 3.2 16.1 0.00 0.00 0.00 70 1013.7
20260905210437 26 288 3.2 12.9 0.00 0.00 0.00 70 1013.7
20260905210329 26 0 3.2 6.4 0.00 0.00 0.00 69 1013.7
20260905210226 26 323 3.2 6.4 0.00 0.00 0.00 69 1013.8
20260905210126 26 271 3.2 9.7 0.00 0.00 0.00 69 1013.7
20260905210026 26 317 3.2 9.7 0.00 0.00 0.00 69 1013.7
20260905205927 26 9 3.2 9.7 0.00 0.00 0.00 70 1013.7
20260905205820 26 308 3.2 9.7 0.00 0.00 0.00 71 1013.7
20260905205721 26 15 3.2 9.7 0.00 0.00 0.00 70 1013.5
20260905205620 26 224 3.2 9.7 0.00 0.00 0.00 71 1013.7
20260905205521 26 290 3.2 9.7 0.00 0.00 0.00 72 1013.5
20260905205421 26 336 3.2 9.7 0.00 0.00 0.00 71 1013.7
20260905205317 26 277 4.8 12.9 0.00 0.00 0.00 71 1013.7
20260905205213 26 309 3.2 12.9 0.00 0.00 0.00 73 1013.5
20260905205115 26 260 3.2 12.9 0.00 0.00 0.00 72 1013.5
20260905205014 26 281 3.2 12.9 0.00 0.00 0.00 71 1013.5
20260905204914 26 300 3.2 12.9 0.00 0.00 0.00 72 1013.7
20260905204805 26 261 3.2 12.9 0.00 0.00 0.00 71 1013.7
20260905204703 26 294 3.2 12.9 0.00 0.00 0.00 70 1013.5
20260905204605 26 252 3.2 12.9 0.00 0.00 0.00 71 1013.7
20260905204503 26 202 3.2 12.9 0.00 0.00 0.00 71 1013.7
20260905204404 26 304 3.2 11.3 0.00 0.00 0.00 72 1013.7
20260905204300 26 326 3.2 11.3 0.00 0.00 0.00 74 1013.8
20260905204159 26 23 3.2 11.3 0.00 0.00 0.00 73 1013.7
20260905204100 26 231 3.2 11.3 0.00 0.00 0.00 72 1013.8
20260905203959 26 234 3.2 11.3 0.00 0.00 0.00 71 1013.8
20260905203859 26 157 3.2 8.0 0.00 0.00 0.00 72 1013.8
20260905203755 26 157 3.2 8.0 0.00 0.00 0.00 72 1013.8
20260905203654 26 320 3.2 8.0 0.00 0.00 0.00 71 1013.8
20260905203554 26 288 3.2 8.0 0.00 0.00 0.00 72 1013.8
20260905203455 26 279 3.2 8.0 0.00 0.00 0.00 72 1013.9
20260905203352 26 175 3.2 9.7 0.00 0.00 0.00 72 1013.9
20260905203245 26 183 3.2 9.7 0.00 0.00 0.00 71 1013.8
20260905203142 26 195 3.2 9.7 0.00 0.00 0.00 72 1013.9
20260905203041 26 188 3.2 9.7 0.00 0.00 0.00 72 1014.0
20260905202940 26 192 3.2 9.7 0.00 0.00 0.00 72 1013.9
20260905202839 26 153 3.2 9.7 0.00 0.00 0.00 73 1013.9
20260905202734 26 174 3.2 9.7 0.00 0.00 0.00 72 1014.0
20260905202634 26 174 3.2 9.7 0.00 0.00 0.00 72 1014.0
20260905202534 26 217 3.2 9.7 0.00 0.00 0.00 72 1014.0
20260905202435 26 198 3.2 9.7 0.00 0.00 0.00 72 1014.0
20260905202333 26 131 3.2 9.7 0.00 0.00 0.00 73 1014.1
20260905202228 26 130 3.2 9.7 0.00 0.00 0.00 72 1014.1
20260905202130 26 132 3.2 9.7 0.00 0.00 0.00 73 1014.1
20260905202028 26 176 1.6 9.7 0.00 0.00 0.00 73 1014.0
20260905201928 26 134 1.6 6.4 0.00 0.00 0.00 73 1014.1
20260905201827 26 134 1.6 6.4 0.00 0.00 0.00 73 1014.2
20260905201719 26 163 1.6 6.4 0.00 0.00 0.00 72 1014.1
20260905201617 26 157 1.6 4.8 0.00 0.00 0.00 72 1014.1
20260905201517 26 158 1.6 4.8 0.00 0.00 0.00 73 1014.1
20260905201417 26 74 1.6 4.8 0.00 0.00 0.00 73 1014.1
20260905201317 26 63 1.6 4.8 0.00 0.00 0.00 72 1014.1
20260905201210 26 0 1.6 4.8 0.00 0.00 0.00 73 1014.1
20260905201109 26 306 1.6 4.8 0.00 0.00 0.00 74 1014.1
20260905201011 26 197 1.6 4.8 0.00 0.00 0.00 73 1014.1
20260905200909 26 293 1.6 4.8 0.00 0.00 0.00 73 1014.1
20260905200810 26 211 1.6 4.8 0.00 0.00 0.00 72 1014.2
20260905200710 26 241 1.6 4.8 0.00 0.00 0.00 74 1014.2
20260905200608 26 271 1.6 4.8 0.00 0.00 0.00 73 1014.2
20260905200508 26 269 1.6 4.8 0.00 0.00 0.00 73 1014.1
20260905200407 26 269 1.6 4.8 0.00 0.00 0.00 72 1014.1
20260905200304 26 263 1.6 4.8 0.00 0.00 0.00 72 1014.2
20260905200203 26 220 1.6 4.8 0.00 0.00 0.00 72 1014.1
20260905200104 26 148 1.6 4.8 0.00 0.00 0.00 72 1014.2
20260905200001 26 148 1.6 4.8 0.00 0.00 0.00 74 1014.1
20260905195901 26 148 1.6 6.4 0.00 0.00 0.00 73 1014.1
20260905195759 26 148 1.6 6.4 0.00 0.00 0.00 72 1014.2
20260905195646 26 148 1.6 6.4 0.00 0.00 0.00 73 1014.1
20260905195545 26 150 1.6 6.4 0.00 0.00 0.00 72 1014.1
20260905195446 26 150 1.6 6.4 0.00 0.00 0.00 71 1014.2
20260905195346 26 157 1.6 6.4 0.00 0.00 0.00 72 1014.1
20260905195244 26 169 1.6 6.4 0.00 0.00 0.00 74 1014.2
20260905195139 26 169 1.6 6.4 0.00 0.00 0.00 72 1014.2
20260905195040 26 169 1.6 6.4 0.00 0.00 0.00 72 1014.2
20260905194939 26 169 1.6 6.4 0.00 0.00 0.00 72 1014.1
20260905194839 26 172 1.6 11.3 0.00 0.00 0.00 71 1014.1
20260905194738 26 176 1.6 11.3 0.00 0.00 0.00 72 1014.2
20260905194628 26 175 1.6 11.3 0.00 0.00 0.00 72 1014.1
20260905194528 26 192 1.6 11.3 0.00 0.00 0.00 72 1014.1
20260905194428 26 189 1.6 11.3 0.00 0.00 0.00 71 1014.1
20260905194329 26 242 1.6 11.3 0.00 0.00 0.00 72 1014.1
20260905194228 26 242 3.2 11.3 0.00 0.00 0.00 73 1014.0
20260905194124 26 269 3.2 11.3 0.00 0.00 0.00 73 1013.9
20260905194024 26 245 3.2 11.3 0.00 0.00 0.00 70 1014.0
20260905193925 26 185 1.6 6.4 0.00 0.00 0.00 70 1013.9
20260905193824 26 197 1.6 6.4 0.00 0.00 0.00 72 1013.9
20260905193722 26 200 3.2 6.4 0.00 0.00 0.00 73 1014.0
20260905193618 26 177 3.2 6.4 0.00 0.00 0.00 73 1014.0
20260905193518 26 191 3.2 6.4 0.00 0.00 0.00 73 1014.0
20260905193418 26 191 3.2 6.4 0.00 0.00 0.00 73 1013.9
20260905193318 26 276 1.6 4.8 0.00 0.00 0.00 73 1013.9
20260905193217 26 275 1.6 4.8 0.00 0.00 0.00 72 1014.1
20260905193107 26 221 1.6 4.8 0.00 0.00 0.00 73 1014.1
20260905193007 26 297 1.6 4.8 0.00 0.00 0.00 73 1014.1
20260905192907 26 297 3.2 4.8 0.00 0.00 0.00 73 1014.2
20260905192806 26 292 3.2 4.8 0.00 0.00 0.00 73 1014.2
20260905192707 26 311 3.2 4.8 0.00 0.00 0.00 74 1014.3
20260905192603 26 202 3.2 4.8 0.00 0.00 0.00 73 1014.2
20260905192501 25 202 3.2 8.0 0.00 0.00 0.00 72 1014.3
20260905192400 25 186 3.2 8.0 0.00 0.00 0.00 74 1014.3
20260905192301 25 185 3.2 8.0 0.00 0.00 0.00 73 1014.3
20260905192201 25 274 3.2 8.0 0.00 0.00 0.00 72 1014.2
20260905192053 25 275 3.2 8.0 0.00 0.00 0.00 73 1014.3
20260905191955 25 274 3.2 8.0 0.00 0.00 0.00 71 1014.2
20260905191854 25 271 3.2 8.0 0.00 0.00 0.00 71 1014.2
20260905191753 25 273 3.2 8.0 0.00 0.00 0.00 71 1014.2
20260905191655 25 271 3.2 8.0 0.00 0.00 0.00 71 1014.2
20260905191546 25 297 3.2 8.0 0.00 0.00 0.00 72 1014.2
20260905191444 25 323 3.2 6.4 0.00 0.00 0.00 72 1014.2
20260905191345 25 318 3.2 6.4 0.00 0.00 0.00 71 1014.1
20260905191243 25 329 3.2 9.7 0.00 0.00 0.00 73 1014.1
20260905191145 25 329 3.2 9.7 0.00 0.00 0.00 73 1014.0
20260905191044 25 327 4.8 9.7 0.00 0.00 0.00 72 1014.0
20260905190943 25 295 4.8 9.7 0.00 0.00 0.00 73 1013.9
20260905190839 25 295 4.8 9.7 0.00 0.00 0.00 72 1013.9
20260905190740 25 294 4.8 9.7 0.00 0.00 0.00 71 1013.9
20260905190638 25 328 6.4 11.3 0.00 0.00 0.00 71 1013.9
20260905190531 25 296 6.4 12.9 0.00 0.00 0.00 70 1013.8
20260905190432 25 296 6.4 12.9 0.00 0.00 0.00 69 1013.9
20260905190330 25 289 8.0 14.5 0.00 0.00 0.00 70 1013.9
20260905190229 25 315 8.0 14.5 0.00 0.00 0.00 71 1013.9
20260905190130 25 298 8.0 14.5 0.00 0.00 0.00 69 1013.9
20260905190022 25 342 8.0 14.5 0.00 0.00 0.00 69 1013.9
20260905185922 25 340 8.0 14.5 0.00 0.00 0.00 71 1013.9
20260905185821 25 337 8.0 14.5 0.00 0.00 0.00 71 1013.8
20260905185722 25 325 9.7 14.5 0.00 0.00 0.00 69 1014.0
20260905185621 25 318 8.0 14.5 0.00 0.00 0.00 70 1013.9
20260905185517 25 311 8.0 14.5 0.00 0.00 0.00 69 1013.8
20260905185414 25 323 8.0 14.5 0.00 0.00 0.00 71 1013.9
20260905185315 25 324 8.0 14.5 0.00 0.00 0.00 71 1013.9
20260905185214 25 313 8.0 14.5 0.00 0.00 0.00 72 1013.9
20260905185115 25 318 8.0 14.5 0.00 0.00 0.00 72 1014.0
20260905185009 25 337 8.0 14.5 0.00 0.00 0.00 71 1014.0
20260905184908 25 326 8.0 14.5 0.00 0.00 0.00 71 1014.0
20260905184808 25 332 9.7 14.5 0.00 0.00 0.00 70 1013.9
20260905184708 25 299 9.7 16.1 0.00 0.00 0.00 71 1013.9
20260905184609 25 341 9.7 16.1 0.00 0.00 0.00 71 1014.0
20260905184458 25 340 9.7 16.1 0.00 0.00 0.00 71 1013.9
20260905184359 25 335 9.7 16.1 0.00 0.00 0.00 71 1013.9
20260905184259 25 304 9.7 16.1 0.00 0.00 0.00 70 1013.9
20260905184157 25 274 9.7 16.1 0.00 0.00 0.00 70 1013.9
20260905184059 25 313 9.7 16.1 0.00 0.00 0.00 70 1013.9
20260905183953 25 325 9.7 17.7 0.00 0.00 0.00 69 1014.0
20260905183851 25 303 9.7 17.7 0.00 0.00 0.00 70 1013.9
20260905183751 25 329 9.7 17.7 0.00 0.00 0.00 70 1014.0
20260905183653 25 314 9.7 17.7 0.00 0.00 0.00 70 1014.0
20260905183552 25 306 9.7 17.7 0.00 0.00 0.00 71 1014.1
20260905183446 25 343 11.3 17.7 0.00 0.00 0.00 71 1014.2
20260905183347 25 322 11.3 19.3 0.00 0.00 0.00 70 1014.3
20260905183247 25 327 12.9 19.3 0.00 0.00 0.00 70 1014.5
20260905183145 25 279 12.9 24.1 0.00 0.00 0.00 70 1014.5
20260905183046 25 319 12.9 24.1 0.00 0.00 0.00 70 1014.5
20260905182937 25 325 12.9 24.1 0.00 0.00 0.00 69 1014.6
20260905182835 25 323 12.9 24.1 0.00 0.00 0.00 69 1014.4
20260905182736 25 329 14.5 24.1 0.00 0.00 0.00 69 1014.2
20260905182636 25 309 14.5 24.1 0.00 0.00 0.00 68 1014.2
20260905182536 25 289 14.5 24.1 0.00 0.00 0.00 68 1014.4
20260905182434 25 315 14.5 24.1 0.00 0.00 0.00 69 1014.6
20260905182333 25 298 14.5 24.1 0.00 0.00 0.00 68 1014.7
20260905182233 25 275 12.9 22.5 0.00 0.00 0.00 69 1014.8
20260905182134 25 288 12.9 20.9 0.00 0.00 0.00 68 1014.8
20260905182033 25 290 12.9 20.9 0.00 0.00 0.00 68 1014.8
20260905181935 25 288 12.9 20.9 0.00 0.00 0.00 67 1014.6
20260905181834 25 326 12.9 20.9 0.00 0.00 0.00 66 1014.4
20260905181733 25 298 11.3 20.9 0.00 0.00 0.00 67 1014.4
20260905181634 25 300 12.9 22.5 0.00 0.00 0.00 67 1014.4
20260905181534 25 327 11.3 22.5 0.00 0.00 0.00 66 1014.4
20260905181434 25 332 12.9 22.5 0.00 0.00 0.00 66 1014.5
20260905181335 25 302 12.9 25.7 0.00 0.00 0.00 67 1014.5
20260905181234 25 334 12.9 25.7 0.00 0.00 0.00 67 1014.6
20260905181134 25 311 12.9 25.7 0.00 0.00 0.00 68 1014.6
20260905181034 25 336 14.5 25.7 0.00 0.00 0.00 68 1014.7
20260905180936 25 333 14.5 25.7 0.00 0.00 0.00 67 1014.8
20260905180835 25 325 14.5 25.7 0.00 0.00 0.00 67 1014.9
20260905180735 25 292 14.5 25.7 0.00 0.00 0.00 67 1014.8
20260905180632 25 297 14.5 25.7 0.00 0.00 0.00 66 1014.7
20260905180532 25 315 14.5 25.7 0.00 0.00 0.00 66 1014.5
20260905180432 25 325 14.5 25.7 0.00 0.00 0.00 65 1014.4
20260905180331 25 327 16.1 24.1 0.00 0.00 0.00 66 1014.5
20260905180231 25 342 16.1 24.1 0.00 0.00 0.00 65 1014.7
20260905180131 25 331 16.1 24.1 0.00 0.00 0.00 65 1014.8
20260905180031 25 308 16.1 24.1 0.00 0.00 0.00 66 1015.0
20260905175932 26 331 16.1 24.1 0.00 0.00 0.00 65 1015.1
20260905175832 26 315 16.1 24.1 0.00 0.00 0.00 66 1015.3
20260905175733 26 329 16.1 24.1 0.00 0.00 0.00 65 1015.3
20260905175633 26 306 16.1 24.1 0.00 0.00 0.00 65 1015.4
20260905175531 26 345 16.1 24.1 0.00 0.00 0.00 65 1015.4
20260905175432 26 317 16.1 24.1 0.00 0.00 0.00 64 1015.5
20260905175332 26 334 16.1 30.6 0.00 0.00 0.00 64 1015.6
20260905175232 26 340 16.1 30.6 0.00 0.00 0.00 64 1015.8
20260905175131 26 333 17.7 30.6 0.00 0.00 0.00 65 1015.9
20260905175031 26 333 17.7 30.6 0.00 0.00 0.00 65 1016.0
20260905174931 26 292 17.7 30.6 0.00 0.00 0.00 65 1016.1
20260905174832 26 319 17.7 30.6 0.00 0.00 0.00 65 1016.0
20260905174733 26 338 17.7 30.6 0.00 0.00 0.00 65 1016.0
20260905174633 26 332 17.7 30.6 0.00 0.00 0.00 65 1016.0
20260905174533 26 324 17.7 30.6 0.00 0.00 0.00 65 1016.1
20260905174431 26 350 17.7 30.6 0.00 0.00 0.00 64 1016.1
20260905174333 26 330 17.7 30.6 0.00 0.00 0.00 65 1016.2
20260905174231 26 321 17.7 30.6 0.00 0.00 0.00 65 1016.2
20260905174132 26 315 17.7 30.6 0.00 0.00 0.00 65 1016.3
20260905174033 26 306 17.7 30.6 0.00 0.00 0.00 65 1016.4
20260905173929 26 332 19.3 33.8 0.00 0.00 0.00 66 1016.4
20260905173828 26 355 17.7 33.8 0.00 0.00 0.00 66 1016.4
20260905173727 26 328 19.3 33.8 0.00 0.00 0.00 68 1016.4
20260905173627 26 331 19.3 33.8 0.00 0.00 0.00 67 1016.4
20260905173527 26 309 20.9 33.8 0.00 0.00 0.00 68 1016.3
20260905173427 26 18 20.9 33.8 0.00 0.00 0.00 67 1016.3
20260905173327 27 313 22.5 33.8 0.00 0.00 0.00 67 1016.2
20260905173228 27 355 22.5 33.8 0.00 0.00 0.00 67 1016.2
20260905173129 27 307 22.5 37.0 0.00 0.00 0.00 66 1016.3
20260905173027 27 315 24.1 37.0 0.00 0.00 0.00 65 1016.2
20260905172928 27 332 24.1 37.0 0.00 0.00 0.00 68 1016.1
20260905172827 27 313 24.1 37.0 0.00 0.00 0.00 68 1016.1
20260905172727 27 299 24.1 37.0 0.00 0.00 0.00 68 1016.2
20260905172628 27 314 24.1 40.2 0.00 0.00 0.00 69 1016.1
20260905172528 27 322 25.7 43.5 0.00 0.00 0.00 68 1016.1
20260905172428 27 312 25.7 43.5 0.00 0.00 0.00 68 1015.9
20260905172328 27 306 25.7 43.5 0.00 0.00 0.00 68 1015.9
20260905172227 27 303 25.7 46.7 0.00 0.00 0.00 67 1016.0
20260905172127 28 327 24.1 46.7 0.00 0.00 0.00 69 1015.9
20260905172029 28 329 24.1 46.7 0.00 0.00 0.00 69 1016.0
20260905171927 28 297 24.1 46.7 0.00 0.00 0.00 70 1016.0
20260905171828 28 318 22.5 46.7 0.00 0.00 0.00 69 1015.9
20260905171729 29 314 20.9 46.7 0.00 0.00 0.00 67 1016.0
20260905171627 29 286 19.3 46.7 0.00 0.00 0.00 67 1016.0
20260905171529 29 312 19.3 46.7 0.00 0.00 0.00 66 1015.9
20260905171428 29 279 17.7 46.7 0.00 0.00 0.00 66 1015.9
20260905171320 29 278 17.7 46.7 0.00 0.00 0.00 66 1015.9
20260905171221 30 254 16.1 33.8 0.00 0.00 0.00 66 1015.8
20260905171120 30 342 16.1 33.8 0.00 0.00 0.00 65 1015.8
20260905171020 30 277 14.5 32.2 0.00 0.00 0.00 68 1015.9
20260905170919 30 331 14.5 25.7 0.00 0.00 0.00 69 1015.8
20260905170821 30 284 12.9 25.7 0.00 0.00 0.00 68 1015.8
20260905170719 30 243 12.9 25.7 0.00 0.00 0.00 67 1015.8
20260905170621 30 334 12.9 25.7 0.00 0.00 0.00 68 1015.8
20260905170519 30 293 12.9 25.7 0.00 0.00 0.00 67 1015.7
20260905170419 30 321 12.9 25.7 0.00 0.00 0.00 68 1015.8
20260905170319 30 286 11.3 22.5 0.00 0.00 0.00 68 1015.8
20260905170220 30 296 11.3 22.5 0.00 0.00 0.00 70 1015.9
20260905170121 30 336 11.3 22.5 0.00 0.00 0.00 70 1016.0
20260905170020 30 321 11.3 22.5 0.00 0.00 0.00 70 1016.0
20260905165919 30 299 11.3 22.5 0.00 0.00 0.00 70 1016.1
20260905165820 30 319 12.9 24.1 0.00 0.00 0.00 70 1016.1
20260905165719 30 309 11.3 24.1 0.00 0.00 0.00 70 1016.1
20260905165620 30 317 11.3 24.1 0.00 0.00 0.00 69 1016.2
20260905165519 30 331 9.7 24.1 0.00 0.00 0.00 69 1016.2
20260905165420 30 299 8.0 24.1 0.00 0.00 0.00 69 1016.3
20260905165321 30 286 6.4 24.1 0.00 0.00 0.00 68 1016.2
20260905165221 30 307 6.4 24.1 0.00 0.00 0.00 68 1016.3
20260905165119 30 329 4.8 24.1 0.00 0.00 0.00 67 1016.2
20260905165019 30 323 3.2 24.1 0.00 0.00 0.00 66 1016.3
20260905164920 30 291 1.6 24.1 0.00 0.00 0.00 68 1016.4
20260905164821 30 303 1.6 16.1 0.00 0.00 0.00 68 1016.3
20260905164719 30 308 0.0 0.0 0.00 0.00 0.00 67 1016.3
20260905164621 30 324 0.0 0.0 0.00 0.00 0.00 68 1016.3
20260905164519 30 339 0.0 0.0 0.00 0.00 0.00 68 1016.3
20260905164420 30 319 0.0 0.0 0.00 0.00 0.00 68 1016.3
20260905164319 30 279 0.0 0.0 0.00 0.00 0.00 69 1016.3
20260905164219 30 341 0.0 0.0 0.00 0.00 0.00 70 1016.3
20260905164121 30 331 0.0 0.0 0.00 0.00 0.00 68 1016.3
20260905164015 30 335 0.0 0.0 0.00 0.00 0.00 69 1016.2
20260905163917 30 315 0.0 0.0 0.00 0.00 0.00 69 1016.3
20260905163817 30 346 0.0 3.2 0.00 0.00 0.00 69 1016.3
20260905163715 30 333 0.0 4.8 0.00 0.00 0.00 68 1016.3
20260905163616 30 313 0.0 4.8 0.00 0.00 0.00 70 1016.2
20260905163515 30 316 0.0 4.8 0.00 0.00 0.00 70 1016.2
20260905163416 30 334 0.0 4.8 0.00 0.00 0.00 69 1016.2
20260905163317 30 317 0.0 4.8 0.00 0.00 0.00 70 1016.3
20260905163215 30 332 0.0 4.8 0.00 0.00 0.00 69 1016.3
20260905163115 30 277 0.0 4.8 0.00 0.00 0.00 71 1016.2
20260905163016 30 15 1.6 12.9 0.00 0.00 0.00 70 1016.2
20260905162915 30 329 1.6 16.1 0.00 0.00 0.00 68 1016.2
20260905162815 30 261 3.2 19.3 0.00 0.00 0.00 68 1016.2
20260905162715 30 261 4.8 19.3 0.00 0.00 0.00 68 1016.2
20260905162616 30 276 6.4 19.3 0.00 0.00 0.00 69 1016.3
20260905162516 30 294 6.4 19.3 0.00 0.00 0.00 69 1016.3
20260905162416 30 265 8.0 19.3 0.00 0.00 0.00 69 1016.4
20260905162316 30 329 9.7 19.3 0.00 0.00 0.00 68 1016.3
20260905162215 30 294 9.7 19.3 0.00 0.00 0.00 69 1016.3
20260905162116 30 286 9.7 19.3 0.00 0.00 0.00 69 1016.3
20260905162015 30 331 9.7 19.3 0.00 0.00 0.00 67 1016.2
20260905161915 30 298 9.7 19.3 0.00 0.00 0.00 67 1016.3
20260905161816 30 304 9.7 17.7 0.00 0.00 0.00 69 1016.3